Observation data for Segovia 7SSW on 11/19/2019      Previous  Date       Current Mesonet Observations  Soil Data  Daily Summary Page  Observations in Plain Language
KSE2 190600Z 19004KT 11/05 A30 RMK A01 T01130049  RH  065%=      5-min Rain = 0
KSE2 190601Z 20005KT 11/05 A30 RMK A01 T01130049  RH  065%=      5-min Rain = 0
KSE2 190602Z 19005KT 11/05 A2999 RMK A01 T01130050  RH  065%=      5-min Rain = 0
KSE2 190603Z 20005KT 11/05 A2999 RMK A01 T01130050  RH  065%=      5-min Rain = 0
KSE2 190604Z 20005KT 11/05 A2999 RMK A01 T01130050  RH  065%=      5-min Rain = 0
KSE2 190605Z 20004KT 11/05 A2999 RMK A01 T01130050  RH  065%=      5-min Rain = 0
KSE2 190606Z 20005KT 11/05 A2999 RMK A01 T01130050  RH  065%=      5-min Rain = 0
KSE2 190607Z 20005KT 11/05 A2999 RMK A01 T01130050  RH  065%=      5-min Rain = 0
KSE2 190608Z 20005KT 11/05 A2999 RMK A01 T01130050  RH  065%=      5-min Rain = 0
KSE2 190609Z 20005KT 11/05 A2999 RMK A01 T01140051  RH  065%=      5-min Rain = 0
KSE2 190610Z 20005KT 11/05 A2999 RMK A01 T01140051  RH  065%=      5-min Rain = 0
KSE2 190611Z 20005KT 11/05 A2999 RMK A01 T01130051  RH  065%=      5-min Rain = 0
KSE2 190612Z 20005KT 11/05 A2999 RMK A01 T01130051  RH  065%=      5-min Rain = 0
KSE2 190613Z 20005KT 11/05 A2999 RMK A01 T01130051  RH  066%=      5-min Rain = 0
KSE2 190614Z 20005KT 11/05 A2999 RMK A01 T01130051  RH  066%=      5-min Rain = 0
KSE2 190615Z 20005KT 11/05 A2999 RMK A01 T01140051  RH  065%=      5-min Rain = 0
KSE2 190616Z 20005KT 11/05 A2999 RMK A01 T01140051  RH  065%=      5-min Rain = 0
KSE2 190617Z 20004KT 11/05 A2999 RMK A01 T01140051  RH  065%=      5-min Rain = 0
KSE2 190618Z 20005KT 11/05 A2999 RMK A01 T01140051  RH  065%=      5-min Rain = 0
KSE2 190619Z 20005KT 11/05 A2999 RMK A01 T01140051  RH  065%=      5-min Rain = 0
KSE2 190620Z 20005KT 11/05 A2999 RMK A01 T01140051  RH  065%=      5-min Rain = 0
KSE2 190621Z 20005KT 11/05 A2999 RMK A01 T01140051  RH  065%=      5-min Rain = 0
KSE2 190622Z 20004KT 11/05 A2999 RMK A01 T01140051  RH  065%=      5-min Rain = 0
KSE2 190623Z 20005KT 11/05 A2999 RMK A01 T01140052  RH  066%=      5-min Rain = 0
KSE2 190624Z 21005KT 11/05 A2999 RMK A01 T01140052  RH  066%=      5-min Rain = 0
KSE2 190625Z 21005KT 11/05 A2999 RMK A01 T01140052  RH  066%=      5-min Rain = 0
KSE2 190626Z 21005KT 11/05 A2999 RMK A01 T01140053  RH  066%=      5-min Rain = 0
KSE2 190627Z 21005KT 11/05 A2999 RMK A01 T01140053  RH  066%=      5-min Rain = 0
KSE2 190628Z 20005KT 12/05 A2999 RMK A01 T01150053  RH  066%=      5-min Rain = 0
KSE2 190629Z 20005KT 12/05 A2999 RMK A01 T01150053  RH  066%=      5-min Rain = 0
KSE2 190630Z 20005KT 12/05 A2999 RMK A01 T01150053  RH  066%=      5-min Rain = 0
KSE2 190631Z 20005KT 12/05 A2999 RMK A01 T01150053  RH  066%=      5-min Rain = 0
KSE2 190632Z 20005KT 12/05 A2999 RMK A01 T01150054  RH  066%=      5-min Rain = 0
KSE2 190633Z 20005KT 12/05 A2999 RMK A01 T01150054  RH  066%=      5-min Rain = 0
KSE2 190634Z 21005KT 12/05 A2999 RMK A01 T01150054  RH  066%=      5-min Rain = 0
KSE2 190635Z 21005KT 12/06 A2999 RMK A01 T01160055  RH  066%=      5-min Rain = 0
KSE2 190636Z 20005KT 12/06 A2999 RMK A01 T01170055  RH  066%=      5-min Rain = 0
KSE2 190637Z 21006KT 12/06 A2999 RMK A01 T01170055  RH  066%=      5-min Rain = 0
KSE2 190638Z 21005KT 12/06 A2999 RMK A01 T01170056  RH  066%=      5-min Rain = 0
KSE2 190639Z 21004KT 12/06 A2999 RMK A01 T01180056  RH  066%=      5-min Rain = 0
KSE2 190640Z 20005KT 12/06 A2999 RMK A01 T01180056  RH  066%=      5-min Rain = 0
KSE2 190641Z 20005KT 12/06 A2999 RMK A01 T01170056  RH  066%=      5-min Rain = 0
KSE2 190642Z 20006KT 12/06 A2999 RMK A01 T01170056  RH  066%=      5-min Rain = 0
KSE2 190643Z 21005KT 12/06 A2999 RMK A01 T01180056  RH  066%=      5-min Rain = 0
KSE2 190644Z 21006KT 12/06 A2999 RMK A01 T01180056  RH  066%=      5-min Rain = 0
KSE2 190645Z 21006KT 12/06 A2999 RMK A01 T01180056  RH  066%=      5-min Rain = 0
KSE2 190646Z 21005KT 12/06 A2999 RMK A01 T01180057  RH  066%=      5-min Rain = 0
KSE2 190647Z 21005KT 12/06 A2999 RMK A01 T01180057  RH  066%=      5-min Rain = 0
KSE2 190648Z 21005KT 12/06 A2999 RMK A01 T01180057  RH  066%=      5-min Rain = 0
KSE2 190649Z 21005KT 12/06 A2999 RMK A01 T01170057  RH  067%=      5-min Rain = 0
KSE2 190650Z 21005KT 12/06 A2999 RMK A01 T01170057  RH  067%=      5-min Rain = 0
KSE2 190651Z 21006KT 12/06 A2999 RMK A01 T01170058  RH  067%=      5-min Rain = 0
KSE2 190652Z 20006KT 12/06 A2999 RMK A01 T01180058  RH  067%=      5-min Rain = 0
KSE2 190653Z 21006KT 12/06 A2999 RMK A01 T01190058  RH  066%=      5-min Rain = 0
KSE2 190654Z 21005KT 12/06 A2999 RMK A01 T01190058  RH  066%=      5-min Rain = 0
KSE2 190655Z 21005KT 12/06 A2999 RMK A01 T01200058  RH  066%=      5-min Rain = 0
KSE2 190656Z 21005KT 12/06 A2999 RMK A01 T01200058  RH  066%=      5-min Rain = 0
KSE2 190657Z 21005KT 12/06 A2999 RMK A01 T01190058  RH  066%=      5-min Rain = 0
KSE2 190658Z 21005KT 12/06 A2999 RMK A01 T01190058  RH  066%=      5-min Rain = 0
KSE2 190659Z 20005KT 12/06 A2999 RMK A01 T01190059  RH  066%=      5-min Rain = 0
KSE2 190700Z 20005KT 12/06 A2999 RMK A01 T01190058  RH  066%=      5-min Rain = 0
KSE2 190701Z 20005KT 12/06 A2999 RMK A01 T01180058  RH  067%=      5-min Rain = 0
KSE2 190702Z 20005KT 12/06 A2999 RMK A01 T01180058  RH  067%=      5-min Rain = 0
KSE2 190703Z 20005KT 12/06 A2999 RMK A01 T01170058  RH  067%=      5-min Rain = 0
KSE2 190704Z 20005KT 12/06 A2999 RMK A01 T01170059  RH  067%=      5-min Rain = 0
KSE2 190705Z 20005KT 12/06 A2999 RMK A01 T01170059  RH  067%=      5-min Rain = 0
KSE2 190706Z 20005KT 12/06 A2999 RMK A01 T01180059  RH  067%=      5-min Rain = 0
KSE2 190707Z 20005KT 12/06 A2999 RMK A01 T01180059  RH  067%=      5-min Rain = 0
KSE2 190708Z 21005KT 12/06 A2999 RMK A01 T01180059  RH  067%=      5-min Rain = 0
KSE2 190709Z 21005KT 12/06 A2999 RMK A01 T01180060  RH  067%=      5-min Rain = 0
KSE2 190710Z 21005KT 12/06 A2999 RMK A01 T01180060  RH  067%=      5-min Rain = 0
KSE2 190711Z 21005KT 12/06 A2999 RMK A01 T01180060  RH  067%=      5-min Rain = 0
KSE2 190712Z 21005KT 12/06 A2999 RMK A01 T01190060  RH  067%=      5-min Rain = 0
KSE2 190713Z 21005KT 12/06 A2999 RMK A01 T01190061  RH  067%=      5-min Rain = 0
KSE2 190714Z 21006KT 12/06 A2999 RMK A01 T01200061  RH  067%=      5-min Rain = 0
KSE2 190715Z 21006KT 12/06 A2999 RMK A01 T01200061  RH  067%=      5-min Rain = 0
KSE2 190716Z 21006KT 12/06 A2999 RMK A01 T01200062  RH  067%=      5-min Rain = 0
KSE2 190717Z 22006KT 12/06 A2999 RMK A01 T01210062  RH  067%=      5-min Rain = 0
KSE2 190718Z 22007KT 12/06 A2999 RMK A01 T01220063  RH  067%=      5-min Rain = 0
KSE2 190719Z 22006KT 12/06 A2999 RMK A01 T01220063  RH  067%=      5-min Rain = 0
KSE2 190720Z 21006KT 12/06 A2999 RMK A01 T01230064  RH  067%=      5-min Rain = 0
KSE2 190721Z 22007KT 12/06 A2999 RMK A01 T01230064  RH  067%=      5-min Rain = 0
KSE2 190722Z 21006KT 13/07 A2998 RMK A01 T01250065  RH  067%=      5-min Rain = 0
KSE2 190723Z 22006KT 13/07 A2998 RMK A01 T01250065  RH  067%=      5-min Rain = 0
KSE2 190724Z 22006KT 13/07 A2998 RMK A01 T01250065  RH  067%=      5-min Rain = 0
KSE2 190725Z 22006KT 13/07 A2998 RMK A01 T01250065  RH  067%=      5-min Rain = 0
KSE2 190726Z 22006KT 13/07 A2998 RMK A01 T01260065  RH  067%=      5-min Rain = 0
KSE2 190727Z 22006KT 13/07 A2998 RMK A01 T01260066  RH  066%=      5-min Rain = 0
KSE2 190728Z 22006KT 13/07 A2998 RMK A01 T01270066  RH  066%=      5-min Rain = 0
KSE2 190729Z 21006KT 13/07 A2998 RMK A01 T01280066  RH  066%=      5-min Rain = 0
KSE2 190730Z 22006KT 13/07 A2998 RMK A01 T01280066  RH  066%=      5-min Rain = 0
KSE2 190731Z 22007KT 13/07 A2998 RMK A01 T01280066  RH  066%=      5-min Rain = 0
KSE2 190732Z 21006KT 13/07 A2998 RMK A01 T01280066  RH  066%=      5-min Rain = 0
KSE2 190733Z 21006KT 13/07 A2998 RMK A01 T01280066  RH  066%=      5-min Rain = 0
KSE2 190734Z 21006KT 13/07 A2998 RMK A01 T01280066  RH  066%=      5-min Rain = 0
KSE2 190735Z 21007KT 13/07 A2998 RMK A01 T01280067  RH  066%=      5-min Rain = 0
KSE2 190736Z 21006KT 13/07 A2998 RMK A01 T01290067  RH  066%=      5-min Rain = 0
KSE2 190737Z 21006KT 13/07 A2998 RMK A01 T01290066  RH  066%=      5-min Rain = 0
KSE2 190738Z 21006KT 13/07 A2998 RMK A01 T01290066  RH  066%=      5-min Rain = 0
KSE2 190739Z 21006KT 13/07 A2998 RMK A01 T01280066  RH  066%=      5-min Rain = 0
KSE2 190740Z 21006KT 13/07 A2998 RMK A01 T01280066  RH  066%=      5-min Rain = 0
KSE2 190741Z 21006KT 13/07 A2998 RMK A01 T01290067  RH  066%=      5-min Rain = 0
KSE2 190742Z 21006KT 13/07 A2998 RMK A01 T01290066  RH  066%=      5-min Rain = 0
KSE2 190743Z 21007KT 13/07 A2998 RMK A01 T01290066  RH  066%=      5-min Rain = 0
KSE2 190744Z 21006KT 13/07 A2998 RMK A01 T01290066  RH  066%=      5-min Rain = 0
KSE2 190745Z 21006KT 13/07 A2998 RMK A01 T01290066  RH  066%=      5-min Rain = 0
KSE2 190746Z 21006KT 13/07 A2998 RMK A01 T01290066  RH  066%=      5-min Rain = 0
KSE2 190747Z 21006KT 13/07 A2998 RMK A01 T01280066  RH  066%=      5-min Rain = 0
KSE2 190748Z 21006KT 13/07 A2998 RMK A01 T01280066  RH  066%=      5-min Rain = 0
KSE2 190749Z 21006KT 13/07 A2998 RMK A01 T01290066  RH  066%=      5-min Rain = 0
KSE2 190750Z 21005KT 13/07 A2998 RMK A01 T01290066  RH  066%=      5-min Rain = 0
KSE2 190751Z 21005KT 13/07 A2998 RMK A01 T01290067  RH  066%=      5-min Rain = 0
KSE2 190752Z 21006KT 13/07 A2998 RMK A01 T01280066  RH  066%=      5-min Rain = 0
KSE2 190753Z 21006KT 13/07 A2999 RMK A01 T01280066  RH  066%=      5-min Rain = 0
KSE2 190754Z 21006KT 13/07 A2999 RMK A01 T01280066  RH  066%=      5-min Rain = 0
KSE2 190755Z 21005KT 13/07 A2999 RMK A01 T01270066  RH  066%=      5-min Rain = 0
KSE2 190756Z 20006KT 13/07 A2999 RMK A01 T01270066  RH  066%=      5-min Rain = 0
KSE2 190757Z 20006KT 13/07 A2999 RMK A01 T01270066  RH  066%=      5-min Rain = 0
KSE2 190758Z 20005KT 13/07 A2999 RMK A01 T01270066  RH  066%=      5-min Rain = 0
KSE2 190759Z 20005KT 13/07 A2999 RMK A01 T01270066  RH  066%=      5-min Rain = 0
KSE2 190800Z 20004KT 13/07 A2999 RMK A01 T01260065  RH  066%=      5-min Rain = 0
KSE2 190801Z 20005KT 13/07 A2999 RMK A01 T01260065  RH  067%=      5-min Rain = 0
KSE2 190802Z 19005KT 13/07 A2999 RMK A01 T01250065  RH  067%=      5-min Rain = 0
KSE2 190803Z 19005KT 12/07 A2999 RMK A01 T01240065  RH  067%=      5-min Rain = 0
KSE2 190804Z 19005KT 12/07 A2999 RMK A01 T01240065  RH  067%=      5-min Rain = 0
KSE2 190805Z 20005KT 12/07 A2999 RMK A01 T01240065  RH  067%=      5-min Rain = 0
KSE2 190806Z 20005KT 12/07 A2999 RMK A01 T01230065  RH  067%=      5-min Rain = 0
KSE2 190807Z 20005KT 12/06 A2999 RMK A01 T01230064  RH  067%=      5-min Rain = 0
KSE2 190808Z 20005KT 12/06 A2999 RMK A01 T01230064  RH  068%=      5-min Rain = 0
KSE2 190809Z 20005KT 12/07 A2999 RMK A01 T01230065  RH  068%=      5-min Rain = 0
KSE2 190810Z 20005KT 12/07 A2999 RMK A01 T01230065  RH  068%=      5-min Rain = 0
KSE2 190811Z 20005KT 12/07 A2999 RMK A01 T01230065  RH  067%=      5-min Rain = 0
KSE2 190812Z 20005KT 12/06 A2999 RMK A01 T01230064  RH  067%=      5-min Rain = 0
KSE2 190813Z 20005KT 12/07 A2999 RMK A01 T01230065  RH  067%=      5-min Rain = 0
KSE2 190814Z 20005KT 12/06 A2999 RMK A01 T01230064  RH  068%=      5-min Rain = 0
KSE2 190815Z 20006KT 12/06 A2999 RMK A01 T01230064  RH  068%=      5-min Rain = 0
KSE2 190816Z 20005KT 12/07 A2999 RMK A01 T01230065  RH  067%=      5-min Rain = 0
KSE2 190817Z 20005KT 12/07 A2999 RMK A01 T01240065  RH  067%=      5-min Rain = 0
KSE2 190818Z 19005KT 12/06 A2999 RMK A01 T01240064  RH  067%=      5-min Rain = 0
KSE2 190819Z 20005KT 12/06 A2999 RMK A01 T01240064  RH  067%=      5-min Rain = 0
KSE2 190820Z 20005KT 12/06 A2999 RMK A01 T01230064  RH  067%=      5-min Rain = 0
KSE2 190821Z 20005KT 12/06 A2999 RMK A01 T01230064  RH  067%=      5-min Rain = 0
KSE2 190822Z 20005KT 12/06 A2999 RMK A01 T01230064  RH  067%=      5-min Rain = 0
KSE2 190823Z 20005KT 12/06 A2999 RMK A01 T01230064  RH  067%=      5-min Rain = 0
KSE2 190824Z 20006KT 12/06 A2999 RMK A01 T01240064  RH  067%=      5-min Rain = 0
KSE2 190825Z 20006KT 12/06 A2999 RMK A01 T01230064  RH  067%=      5-min Rain = 0
KSE2 190826Z 21005KT 12/06 A2999 RMK A01 T01230064  RH  067%=      5-min Rain = 0
KSE2 190827Z 20006KT 12/06 A2999 RMK A01 T01230064  RH  067%=      5-min Rain = 0
KSE2 190828Z 20006KT 12/06 A2999 RMK A01 T01230064  RH  067%=      5-min Rain = 0
KSE2 190829Z 20006KT 12/07 A2999 RMK A01 T01230065  RH  067%=      5-min Rain = 0
KSE2 190830Z 19005KT 12/07 A2999 RMK A01 T01240065  RH  067%=      5-min Rain = 0
KSE2 190831Z 20006KT 12/07 A2999 RMK A01 T01240065  RH  067%=      5-min Rain = 0
KSE2 190832Z 20004KT 12/07 A2999 RMK A01 T01240065  RH  067%=      5-min Rain = 0
KSE2 190833Z 20005KT 12/07 A2999 RMK A01 T01240065  RH  067%=      5-min Rain = 0
KSE2 190834Z 20006KT 12/07 A2999 RMK A01 T01240065  RH  067%=      5-min Rain = 0
KSE2 190835Z 20005KT 12/07 A2999 RMK A01 T01240065  RH  067%=      5-min Rain = 0
KSE2 190836Z 20006KT 12/07 A2999 RMK A01 T01240065  RH  067%=      5-min Rain = 0
KSE2 190837Z 20005KT 12/07 A2999 RMK A01 T01240065  RH  067%=      5-min Rain = 0
KSE2 190838Z 20005KT 12/06 A2999 RMK A01 T01230064  RH  067%=      5-min Rain = 0
KSE2 190839Z 20005KT 12/06 A2999 RMK A01 T01230064  RH  067%=      5-min Rain = 0
KSE2 190840Z 20005KT 12/06 A2999 RMK A01 T01230064  RH  067%=      5-min Rain = 0
KSE2 190841Z 20005KT 12/06 A2999 RMK A01 T01230064  RH  067%=      5-min Rain = 0
KSE2 190842Z 20005KT 12/06 A2999 RMK A01 T01230064  RH  067%=      5-min Rain = 0
KSE2 190843Z 21005KT 12/06 A2999 RMK A01 T01230064  RH  067%=      5-min Rain = 0
KSE2 190844Z 20006KT 12/07 A2999 RMK A01 T01230065  RH  067%=      5-min Rain = 0
KSE2 190845Z 21005KT 12/07 A2999 RMK A01 T01240065  RH  067%=      5-min Rain = 0
KSE2 190846Z 21006KT 12/07 A2999 RMK A01 T01240065  RH  067%=      5-min Rain = 0
KSE2 190847Z 21006KT 12/07 A2999 RMK A01 T01240065  RH  067%=      5-min Rain = 0
KSE2 190848Z 21005KT 13/07 A2999 RMK A01 T01250065  RH  067%=      5-min Rain = 0
KSE2 190849Z 21005KT 13/07 A2999 RMK A01 T01250065  RH  067%=      5-min Rain = 0
KSE2 190850Z 21005KT 13/07 A2999 RMK A01 T01250065  RH  067%=      5-min Rain = 0
KSE2 190851Z 20005KT 13/07 A2999 RMK A01 T01260065  RH  066%=      5-min Rain = 0
KSE2 190852Z 21005KT 13/07 A2999 RMK A01 T01270066  RH  066%=      5-min Rain = 0
KSE2 190853Z 21005KT 13/07 A2999 RMK A01 T01270065  RH  066%=      5-min Rain = 0
KSE2 190854Z 21005KT 13/07 A2999 RMK A01 T01280066  RH  066%=      5-min Rain = 0
KSE2 190855Z 21005KT 13/07 A2999 RMK A01 T01270065  RH  066%=      5-min Rain = 0
KSE2 190856Z 21005KT 13/07 A2999 RMK A01 T01270065  RH  066%=      5-min Rain = 0
KSE2 190857Z 21005KT 13/07 A2999 RMK A01 T01270065  RH  066%=      5-min Rain = 0
KSE2 190858Z 22005KT 13/07 A2999 RMK A01 T01270065  RH  066%=      5-min Rain = 0
KSE2 190859Z 22005KT 13/07 A2999 RMK A01 T01270065  RH  066%=      5-min Rain = 0
KSE2 190900Z 22006KT 13/07 A2999 RMK A01 T01270065  RH  066%=      5-min Rain = 0
KSE2 190901Z 22005KT 13/07 A2999 RMK A01 T01270065  RH  066%=      5-min Rain = 0
KSE2 190902Z 22005KT 13/07 A2999 RMK A01 T01270065  RH  066%=      5-min Rain = 0
KSE2 190903Z 22005KT 13/07 A2999 RMK A01 T01270065  RH  066%=      5-min Rain = 0
KSE2 190904Z 22005KT 13/07 A2999 RMK A01 T01280066  RH  066%=      5-min Rain = 0
KSE2 190905Z 22006KT 13/07 A2999 RMK A01 T01270066  RH  066%=      5-min Rain = 0
KSE2 190906Z 22006KT 13/07 A2999 RMK A01 T01280066  RH  066%=      5-min Rain = 0
KSE2 190907Z 22006KT 13/07 A2999 RMK A01 T01290066  RH  065%=      5-min Rain = 0
KSE2 190908Z 22006KT 13/07 A2999 RMK A01 T01300066  RH  065%=      5-min Rain = 0
KSE2 190909Z 22005KT 13/07 A2999 RMK A01 T01300066  RH  065%=      5-min Rain = 0
KSE2 190910Z 21005KT 13/07 A2999 RMK A01 T01310066  RH  065%=      5-min Rain = 0
KSE2 190911Z 22005KT 13/07 A2999 RMK A01 T01300066  RH  065%=      5-min Rain = 0
KSE2 190912Z 21006KT 13/07 A2999 RMK A01 T01310066  RH  065%=      5-min Rain = 0
KSE2 190913Z 21006KT 13/07 A2999 RMK A01 T01310066  RH  065%=      5-min Rain = 0
KSE2 190914Z 21006KT 13/07 A2999 RMK A01 T01320066  RH  065%=      5-min Rain = 0
KSE2 190915Z 21006KT 13/07 A2999 RMK A01 T01310066  RH  065%=      5-min Rain = 0
KSE2 190916Z 21006KT 13/07 A2999 RMK A01 T01310066  RH  065%=      5-min Rain = 0
KSE2 190917Z 21005KT 13/07 A2999 RMK A01 T01310066  RH  065%=      5-min Rain = 0
KSE2 190918Z 20005KT 13/07 A2999 RMK A01 T01310066  RH  065%=      5-min Rain = 0
KSE2 190919Z 20005KT 13/07 A2999 RMK A01 T01300066  RH  065%=      5-min Rain = 0
KSE2 190920Z 20006KT 13/07 A2999 RMK A01 T01300066  RH  065%=      5-min Rain = 0
KSE2 190921Z 21006KT 13/07 A2999 RMK A01 T01300066  RH  065%=      5-min Rain = 0
KSE2 190922Z 21005KT 13/07 A2999 RMK A01 T01300066  RH  065%=      5-min Rain = 0
KSE2 190923Z 21005KT 13/07 A2999 RMK A01 T01290066  RH  065%=      5-min Rain = 0
KSE2 190924Z 20005KT 13/07 A2999 RMK A01 T01290066  RH  065%=      5-min Rain = 0
KSE2 190925Z 20006KT 13/07 A2999 RMK A01 T01280066  RH  066%=      5-min Rain = 0
KSE2 190926Z 21005KT 13/07 A2999 RMK A01 T01280066  RH  066%=      5-min Rain = 0
KSE2 190927Z 21005KT 13/07 A2999 RMK A01 T01270066  RH  066%=      5-min Rain = 0
KSE2 190928Z 21005KT 13/07 A2999 RMK A01 T01270066  RH  066%=      5-min Rain = 0
KSE2 190929Z 21006KT 13/07 A2999 RMK A01 T01270066  RH  066%=      5-min Rain = 0
KSE2 190930Z 21006KT 13/07 A2999 RMK A01 T01270066  RH  066%=      5-min Rain = 0
KSE2 190931Z 21005KT 13/07 A2999 RMK A01 T01280066  RH  066%=      5-min Rain = 0
KSE2 190932Z 21006KT 13/07 A2999 RMK A01 T01290066  RH  066%=      5-min Rain = 0
KSE2 190933Z 21006KT 13/07 A2999 RMK A01 T01290066  RH  066%=      5-min Rain = 0
KSE2 190934Z 21006KT 13/07 A2999 RMK A01 T01290066  RH  066%=      5-min Rain = 0
KSE2 190935Z 20006KT 13/07 A2999 RMK A01 T01290066  RH  066%=      5-min Rain = 0
KSE2 190936Z 21005KT 13/07 A2999 RMK A01 T01290066  RH  066%=      5-min Rain = 0
KSE2 190937Z 21006KT 13/07 A2999 RMK A01 T01280066  RH  066%=      5-min Rain = 0
KSE2 190938Z 20006KT 13/07 A2999 RMK A01 T01280066  RH  066%=      5-min Rain = 0
KSE2 190939Z 20006KT 13/07 A2999 RMK A01 T01280066  RH  066%=      5-min Rain = 0
KSE2 190940Z 20006KT 13/07 A2999 RMK A01 T01280066  RH  066%=      5-min Rain = 0
KSE2 190941Z 21006KT 13/07 A2999 RMK A01 T01280066  RH  066%=      5-min Rain = 0
KSE2 190942Z 20007KT 13/07 A2999 RMK A01 T01280066  RH  066%=      5-min Rain = 0
KSE2 190943Z 21006KT 13/07 A2999 RMK A01 T01280066  RH  066%=      5-min Rain = 0
KSE2 190944Z 21005KT 13/07 A2999 RMK A01 T01280066  RH  066%=      5-min Rain = 0
KSE2 190945Z 21006KT 13/07 A2999 RMK A01 T01280066  RH  066%=      5-min Rain = 0
KSE2 190946Z 21006KT 13/07 A2999 RMK A01 T01270066  RH  066%=      5-min Rain = 0
KSE2 190947Z 21005KT 13/07 A2999 RMK A01 T01270066  RH  067%=      5-min Rain = 0
KSE2 190948Z 21006KT 13/07 A2999 RMK A01 T01260066  RH  067%=      5-min Rain = 0
KSE2 190949Z 20005KT 13/07 A2998 RMK A01 T01270067  RH  067%=      5-min Rain = 0
KSE2 190950Z 21006KT 13/07 A2998 RMK A01 T01270067  RH  067%=      5-min Rain = 0
KSE2 190951Z 20006KT 13/07 A2998 RMK A01 T01270067  RH  067%=      5-min Rain = 0
KSE2 190952Z 20006KT 13/07 A2998 RMK A01 T01270067  RH  067%=      5-min Rain = 0
KSE2 190953Z 20005KT 13/07 A2998 RMK A01 T01270067  RH  067%=      5-min Rain = 0
KSE2 190954Z 20005KT 13/07 A2998 RMK A01 T01270067  RH  067%=      5-min Rain = 0
KSE2 190955Z 20005KT 13/07 A2998 RMK A01 T01260067  RH  067%=      5-min Rain = 0
KSE2 190956Z 20005KT 13/07 A2998 RMK A01 T01260067  RH  067%=      5-min Rain = 0
KSE2 190957Z 20005KT 13/07 A2998 RMK A01 T01260067  RH  067%=      5-min Rain = 0
KSE2 190958Z 20005KT 13/07 A2998 RMK A01 T01250067  RH  067%=      5-min Rain = 0
KSE2 190959Z 20005KT 13/07 A2998 RMK A01 T01260067  RH  067%=      5-min Rain = 0
KSE2 191000Z 20005KT 13/07 A2998 RMK A01 T01260067  RH  068%=      5-min Rain = 0
KSE2 191001Z 19006KT 13/07 A2998 RMK A01 T01250067  RH  068%=      5-min Rain = 0
KSE2 191002Z 20006KT 13/07 A2999 RMK A01 T01250067  RH  068%=      5-min Rain = 0
KSE2 191003Z 20005KT 12/07 A2999 RMK A01 T01240067  RH  068%=      5-min Rain = 0
KSE2 191004Z 20005KT 12/07 A2998 RMK A01 T01240068  RH  068%=      5-min Rain = 0
KSE2 191005Z 20005KT 12/07 A2998 RMK A01 T01240068  RH  068%=      5-min Rain = 0
KSE2 191006Z 21005KT 12/07 A2998 RMK A01 T01240068  RH  068%=      5-min Rain = 0
KSE2 191007Z 20005KT 13/07 A2999 RMK A01 T01250068  RH  068%=      5-min Rain = 0
KSE2 191008Z 20005KT 13/07 A2999 RMK A01 T01250068  RH  068%=      5-min Rain = 0
KSE2 191009Z 20004KT 13/07 A2999 RMK A01 T01250068  RH  068%=      5-min Rain = 0
KSE2 191010Z 20004KT 13/07 A2999 RMK A01 T01250068  RH  068%=      5-min Rain = 0
KSE2 191011Z 21004KT 13/07 A2998 RMK A01 T01250069  RH  068%=      5-min Rain = 0
KSE2 191012Z 21005KT 13/07 A2998 RMK A01 T01250069  RH  068%=      5-min Rain = 0
KSE2 191013Z 21004KT 13/07 A2998 RMK A01 T01250068  RH  068%=      5-min Rain = 0
KSE2 191014Z 22005KT 12/07 A2998 RMK A01 T01240068  RH  069%=      5-min Rain = 0
KSE2 191015Z 21005KT 12/07 A2998 RMK A01 T01240069  RH  069%=      5-min Rain = 0
KSE2 191016Z 21005KT 12/07 A2998 RMK A01 T01240069  RH  069%=      5-min Rain = 0
KSE2 191017Z 21005KT 12/07 A2999 RMK A01 T01240069  RH  069%=      5-min Rain = 0
KSE2 191018Z 20005KT 12/07 A2999 RMK A01 T01240069  RH  069%=      5-min Rain = 0
KSE2 191019Z 21006KT 12/07 A2999 RMK A01 T01240069  RH  069%=      5-min Rain = 0
KSE2 191020Z 21006KT 12/07 A2999 RMK A01 T01240069  RH  069%=      5-min Rain = 0
KSE2 191021Z 21005KT 12/07 A2999 RMK A01 T01240069  RH  069%=      5-min Rain = 0
KSE2 191022Z 21005KT 12/07 A2999 RMK A01 T01240069  RH  069%=      5-min Rain = 0
KSE2 191023Z 20005KT 12/07 A2999 RMK A01 T01230069  RH  069%=      5-min Rain = 0
KSE2 191024Z 20004KT 12/07 A2999 RMK A01 T01230069  RH  069%=      5-min Rain = 0
KSE2 191025Z 20004KT 12/07 A2999 RMK A01 T01230069  RH  070%=      5-min Rain = 0
KSE2 191026Z 20005KT 12/07 A2999 RMK A01 T01220069  RH  070%=      5-min Rain = 0
KSE2 191027Z 20005KT 12/07 A2999 RMK A01 T01220069  RH  070%=      5-min Rain = 0
KSE2 191028Z 20005KT 12/07 A2999 RMK A01 T01220069  RH  070%=      5-min Rain = 0
KSE2 191029Z 19004KT 12/07 A2999 RMK A01 T01220069  RH  070%=      5-min Rain = 0
KSE2 191030Z 19005KT 12/07 A2999 RMK A01 T01210068  RH  070%=      5-min Rain = 0
KSE2 191031Z 19005KT 12/07 A2999 RMK A01 T01210068  RH  070%=      5-min Rain = 0
KSE2 191032Z 20004KT 12/07 A2999 RMK A01 T01210069  RH  071%=      5-min Rain = 0
KSE2 191033Z 19004KT 12/07 A2999 RMK A01 T01210069  RH  071%=      5-min Rain = 0
KSE2 191034Z 20004KT 12/07 A2999 RMK A01 T01200068  RH  071%=      5-min Rain = 0
KSE2 191035Z 20004KT 12/07 A2999 RMK A01 T01190069  RH  071%=      5-min Rain = 0
KSE2 191036Z 20004KT 12/07 A2999 RMK A01 T01190069  RH  071%=      5-min Rain = 0
KSE2 191037Z 20004KT 12/07 A2999 RMK A01 T01200069  RH  071%=      5-min Rain = 0
KSE2 191038Z 20004KT 12/07 A2999 RMK A01 T01200069  RH  071%=      5-min Rain = 0
KSE2 191039Z 19004KT 12/07 A2999 RMK A01 T01200069  RH  071%=      5-min Rain = 0
KSE2 191040Z 18004KT 12/07 A2999 RMK A01 T01190069  RH  071%=      5-min Rain = 0
KSE2 191041Z 18004KT 12/07 A2999 RMK A01 T01180068  RH  071%=      5-min Rain = 0
KSE2 191042Z 18004KT 12/07 A2999 RMK A01 T01170068  RH  072%=      5-min Rain = 0
KSE2 191043Z 18004KT 12/07 A2999 RMK A01 T01170068  RH  072%=      5-min Rain = 0
KSE2 191044Z 18004KT 12/07 A2999 RMK A01 T01160068  RH  072%=      5-min Rain = 0
KSE2 191045Z 18004KT 12/07 A2999 RMK A01 T01160068  RH  072%=      5-min Rain = 0
KSE2 191046Z 18004KT 12/07 A2999 RMK A01 T01150067  RH  073%=      5-min Rain = 0
KSE2 191047Z 18003KT 12/07 A2999 RMK A01 T01150068  RH  073%=      5-min Rain = 0
KSE2 191048Z 18004KT 12/07 A2999 RMK A01 T01150067  RH  073%=      5-min Rain = 0
KSE2 191049Z 18003KT 12/07 A2999 RMK A01 T01150067  RH  073%=      5-min Rain = 0
KSE2 191050Z 18003KT 11/07 A2999 RMK A01 T01140067  RH  073%=      5-min Rain = 0
KSE2 191051Z 18004KT 11/07 A2999 RMK A01 T01140067  RH  073%=      5-min Rain = 0
KSE2 191052Z 18004KT 11/07 A2999 RMK A01 T01130066  RH  073%=      5-min Rain = 0
KSE2 191053Z 19004KT 11/07 A2999 RMK A01 T01130067  RH  073%=      5-min Rain = 0
KSE2 191054Z 19004KT 11/07 A2999 RMK A01 T01130067  RH  073%=      5-min Rain = 0
KSE2 191055Z 20004KT 11/07 A2999 RMK A01 T01120066  RH  074%=      5-min Rain = 0
KSE2 191056Z 19004KT 11/07 A2999 RMK A01 T01110066  RH  074%=      5-min Rain = 0
KSE2 191057Z 19004KT 11/07 A2999 RMK A01 T01110067  RH  074%=      5-min Rain = 0
KSE2 191058Z 18004KT 11/07 A2999 RMK A01 T01100067  RH  074%=      5-min Rain = 0
KSE2 191059Z 18004KT 11/07 A2999 RMK A01 T01100066  RH  075%=      5-min Rain = 0
KSE2 191100Z 17004KT 11/07 A2999 RMK A01 T01090066  RH  075%=      5-min Rain = 0
KSE2 191101Z 17004KT 11/07 A2999 RMK A01 T01080066  RH  075%=      5-min Rain = 0
KSE2 191102Z 17005KT 11/07 A2999 RMK A01 T01070065  RH  075%=      5-min Rain = 0
KSE2 191103Z 16005KT 11/07 A2999 RMK A01 T01060065  RH  075%=      5-min Rain = 0
KSE2 191104Z 16005KT 11/06 A2999 RMK A01 T01050064  RH  076%=      5-min Rain = 0
KSE2 191105Z 15005KT 10/06 A2999 RMK A01 T01040064  RH  076%=      5-min Rain = 0
KSE2 191106Z 15005KT 10/06 A2999 RMK A01 T01020064  RH  077%=      5-min Rain = 0
KSE2 191107Z 15005KT 10/06 A2999 RMK A01 T01010064  RH  077%=      5-min Rain = 0
KSE2 191108Z 15005KT 10/06 A2999 RMK A01 T01010064  RH  078%=      5-min Rain = 0
KSE2 191109Z 15004KT 10/06 A2999 RMK A01 T01000064  RH  078%=      5-min Rain = 0
KSE2 191110Z 16003KT 10/06 A2999 RMK A01 T01000064  RH  078%=      5-min Rain = 0
KSE2 191111Z 16003KT 10/06 A2999 RMK A01 T01000064  RH  078%=      5-min Rain = 0
KSE2 191112Z 16003KT 10/06 A2999 RMK A01 T00990063  RH  079%=      5-min Rain = 0
KSE2 191113Z 16004KT 10/06 A2999 RMK A01 T00980063  RH  079%=      5-min Rain = 0
KSE2 191114Z 15004KT 10/06 A2999 RMK A01 T00980063  RH  079%=      5-min Rain = 0
KSE2 191115Z 14004KT 10/06 A2999 RMK A01 T00960062  RH  079%=      5-min Rain = 0
KSE2 191116Z 14005KT 10/06 A2999 RMK A01 T00950061  RH  079%=      5-min Rain = 0
KSE2 191117Z 14005KT 09/06 A2999 RMK A01 T00940061  RH  080%=      5-min Rain = 0
KSE2 191118Z 14005KT 09/06 A2999 RMK A01 T00920060  RH  080%=      5-min Rain = 0
KSE2 191119Z 14005KT 09/06 A2999 RMK A01 T00910059  RH  080%=      5-min Rain = 0
KSE2 191120Z 14006KT 09/06 A2999 RMK A01 T00900059  RH  081%=      5-min Rain = 0
KSE2 191121Z 14006KT 09/06 A2999 RMK A01 T00880058  RH  081%=      5-min Rain = 0
KSE2 191122Z 14006KT 09/06 A2999 RMK A01 T00870057  RH  082%=      5-min Rain = 0
KSE2 191123Z 14006KT 09/06 A2999 RMK A01 T00860057  RH  082%=      5-min Rain = 0
KSE2 191124Z 14006KT 08/06 A2999 RMK A01 T00840056  RH  082%=      5-min Rain = 0
KSE2 191125Z 13006KT 08/06 A2999 RMK A01 T00820055  RH  083%=      5-min Rain = 0
KSE2 191126Z 14005KT 08/06 A2999 RMK A01 T00810055  RH  084%=      5-min Rain = 0
KSE2 191127Z 14005KT 08/06 A2999 RMK A01 T00800056  RH  085%=      5-min Rain = 0
KSE2 191128Z 14004KT 08/06 A2999 RMK A01 T00800056  RH  085%=      5-min Rain = 0
KSE2 191129Z 15005KT 08/06 A2999 RMK A01 T00800057  RH  085%=      5-min Rain = 0
KSE2 191130Z 15005KT 08/06 A2999 RMK A01 T00810057  RH  085%=      5-min Rain = 0
KSE2 191131Z 15005KT 08/06 A2999 RMK A01 T00810057  RH  085%=      5-min Rain = 0
KSE2 191132Z 15006KT 08/06 A2999 RMK A01 T00810057  RH  085%=      5-min Rain = 0
KSE2 191133Z 15006KT 08/06 A2999 RMK A01 T00820057  RH  085%=      5-min Rain = 0
KSE2 191134Z 15006KT 08/06 A2999 RMK A01 T00820057  RH  084%=      5-min Rain = 0
KSE2 191135Z 15006KT 08/06 A2999 RMK A01 T00820057  RH  084%=      5-min Rain = 0
KSE2 191136Z 15006KT 08/06 A2999 RMK A01 T00820057  RH  084%=      5-min Rain = 0
KSE2 191137Z 15006KT 08/06 A2999 RMK A01 T00810056  RH  084%=      5-min Rain = 0
KSE2 191138Z 15006KT 08/06 A2999 RMK A01 T00810055  RH  084%=      5-min Rain = 0
KSE2 191139Z 15006KT 08/06 A2999 RMK A01 T00790055  RH  084%=      5-min Rain = 0
KSE2 191140Z 15006KT 08/06 A2999 RMK A01 T00790055  RH  085%=      5-min Rain = 0
KSE2 191141Z 15006KT 08/06 A2999 RMK A01 T00780055  RH  085%=      5-min Rain = 0
KSE2 191142Z 15006KT 08/06 A2999 RMK A01 T00780055  RH  086%=      5-min Rain = 0
KSE2 191143Z 15007KT 08/06 A2999 RMK A01 T00780056  RH  086%=      5-min Rain = 0
KSE2 191144Z 15006KT 08/06 A2999 RMK A01 T00790056  RH  086%=      5-min Rain = 0
KSE2 191145Z 15006KT 08/06 A2999 RMK A01 T00790056  RH  086%=      5-min Rain = 0
KSE2 191146Z 15006KT 08/06 A2999 RMK A01 T00790056  RH  086%=      5-min Rain = 0
KSE2 191147Z 15006KT 08/06 A2999 RMK A01 T00800057  RH  086%=      5-min Rain = 0
KSE2 191148Z 15006KT 08/06 A2999 RMK A01 T00800057  RH  085%=      5-min Rain = 0
KSE2 191149Z 15006KT 08/06 A2999 RMK A01 T00810058  RH  085%=      5-min Rain = 0
KSE2 191150Z 15006KT 08/06 A2999 RMK A01 T00820058  RH  085%=      5-min Rain = 0
KSE2 191151Z 16006KT 08/06 A2999 RMK A01 T00820059  RH  085%=      5-min Rain = 0
KSE2 191152Z 16006KT 08/06 A2999 RMK A01 T00840060  RH  085%=      5-min Rain = 0
KSE2 191153Z 16006KT 08/06 A2999 RMK A01 T00840060  RH  085%=      5-min Rain = 0
KSE2 191154Z 16006KT 09/06 A2999 RMK A01 T00850060  RH  084%=      5-min Rain = 0
KSE2 191155Z 16005KT 09/06 A2999 RMK A01 T00850060  RH  084%=      5-min Rain = 0
KSE2 191156Z 17005KT 09/06 A2999 RMK A01 T00860060  RH  084%=      5-min Rain = 0
KSE2 191157Z 17005KT 09/06 A2999 RMK A01 T00860061  RH  084%=      5-min Rain = 0
KSE2 191158Z 17004KT 09/06 A2999 RMK A01 T00860061  RH  084%=      5-min Rain = 0
KSE2 191159Z 18004KT 09/06 A2999 RMK A01 T00870061  RH  084%=      5-min Rain = 0
KSE2 191200Z 18004KT 09/06 A2999 RMK A01 T00870061  RH  084%=      5-min Rain = 0
KSE2 191201Z 18004KT 09/06 A2999 RMK A01 T00870060  RH  083%=      5-min Rain = 0
KSE2 191202Z 18004KT 09/06 A2999 RMK A01 T00860060  RH  084%=      5-min Rain = 0
KSE2 191203Z 18005KT 09/06 A2999 RMK A01 T00860060  RH  084%=      5-min Rain = 0
KSE2 191204Z 18005KT 09/06 A2999 RMK A01 T00850059  RH  084%=      5-min Rain = 0
KSE2 191205Z 18005KT 09/06 A30 RMK A01 T00850060  RH  084%=      5-min Rain = 0
KSE2 191206Z 18005KT 09/06 A30 RMK A01 T00850060  RH  084%=      5-min Rain = 0
KSE2 191207Z 18004KT 09/06 A30 RMK A01 T00850061  RH  085%=      5-min Rain = 0
KSE2 191208Z 17005KT 09/06 A30 RMK A01 T00850061  RH  085%=      5-min Rain = 0
KSE2 191209Z 17005KT 09/06 A30 RMK A01 T00860062  RH  085%=      5-min Rain = 0
KSE2 191210Z 17005KT 09/06 A30 RMK A01 T00870062  RH  084%=      5-min Rain = 0
KSE2 191211Z 17005KT 09/06 A30 RMK A01 T00870062  RH  084%=      5-min Rain = 0
KSE2 191212Z 18005KT 09/06 A30 RMK A01 T00870062  RH  084%=      5-min Rain = 0
KSE2 191213Z 18005KT 09/06 A30 RMK A01 T00880062  RH  084%=      5-min Rain = 0
KSE2 191214Z 18005KT 09/06 A30 RMK A01 T00880062  RH  084%=      5-min Rain = 0
KSE2 191215Z 18005KT 09/06 A30 RMK A01 T00880062  RH  084%=      5-min Rain = 0
KSE2 191216Z 18005KT 09/06 A30 RMK A01 T00880062  RH  084%=      5-min Rain = 0
KSE2 191217Z 18004KT 09/06 A30 RMK A01 T00880064  RH  085%=      5-min Rain = 0
KSE2 191218Z 18005KT 09/06 A30 RMK A01 T00890064  RH  085%=      5-min Rain = 0
KSE2 191219Z 18005KT 09/06 A30 RMK A01 T00890064  RH  084%=      5-min Rain = 0
KSE2 191220Z 18005KT 09/06 A30 RMK A01 T00890064  RH  084%=      5-min Rain = 0
KSE2 191221Z 18005KT 09/07 A30 RMK A01 T00900065  RH  084%=      5-min Rain = 0
KSE2 191222Z 18005KT 09/07 A30 RMK A01 T00900065  RH  084%=      5-min Rain = 0
KSE2 191223Z 18005KT 09/07 A30 RMK A01 T00910065  RH  084%=      5-min Rain = 0
KSE2 191224Z 19005KT 09/07 A30 RMK A01 T00910065  RH  084%=      5-min Rain = 0
KSE2 191225Z 19005KT 09/07 A30 RMK A01 T00910065  RH  084%=      5-min Rain = 0
KSE2 191226Z 19005KT 09/07 A30 RMK A01 T00910065  RH  084%=      5-min Rain = 0
KSE2 191227Z 19005KT 09/07 A30 RMK A01 T00910066  RH  084%=      5-min Rain = 0
KSE2 191228Z 19005KT 09/07 A30 RMK A01 T00920067  RH  085%=      5-min Rain = 0
KSE2 191229Z 19005KT 09/07 A30 RMK A01 T00920067  RH  084%=      5-min Rain = 0
KSE2 191230Z 19005KT 09/07 A30 RMK A01 T00920067  RH  084%=      5-min Rain = 0
KSE2 191231Z 19005KT 09/07 A30 RMK A01 T00930067  RH  084%=      5-min Rain = 0
KSE2 191232Z 19005KT 09/07 A30 RMK A01 T00930068  RH  084%=      5-min Rain = 0
KSE2 191233Z 19004KT 09/07 A30 RMK A01 T00930068  RH  084%=      5-min Rain = 0
KSE2 191234Z 18004KT 09/07 A30 RMK A01 T00930068  RH  084%=      5-min Rain = 0
KSE2 191235Z 18004KT 09/07 A30 RMK A01 T00930068  RH  084%=      5-min Rain = 0
KSE2 191236Z 18004KT 09/07 A30 RMK A01 T00930068  RH  084%=      5-min Rain = 0
KSE2 191237Z 18004KT 09/07 A30 RMK A01 T00920068  RH  085%=      5-min Rain = 0
KSE2 191238Z 18004KT 09/07 A30 RMK A01 T00920068  RH  085%=      5-min Rain = 0
KSE2 191239Z 18004KT 09/07 A30 RMK A01 T00920068  RH  085%=      5-min Rain = 0
KSE2 191240Z 18004KT 09/07 A30 RMK A01 T00930068  RH  085%=      5-min Rain = 0
KSE2 191241Z 19004KT 09/07 A30 RMK A01 T00920068  RH  085%=      5-min Rain = 0
KSE2 191242Z 19004KT 09/07 A30 RMK A01 T00910067  RH  085%=      5-min Rain = 0
KSE2 191243Z 19004KT 09/07 A30 RMK A01 T00910067  RH  085%=      5-min Rain = 0
KSE2 191244Z 19005KT 09/07 A30 RMK A01 T00910067  RH  085%=      5-min Rain = 0
KSE2 191245Z 19005KT 09/07 A30 RMK A01 T00900068  RH  086%=      5-min Rain = 0
KSE2 191246Z 19005KT 09/07 A30 RMK A01 T00910068  RH  086%=      5-min Rain = 0
KSE2 191247Z 19005KT 09/07 A30 RMK A01 T00910069  RH  086%=      5-min Rain = 0
KSE2 191248Z 19005KT 09/07 A30 RMK A01 T00920069  RH  086%=      5-min Rain = 0
KSE2 191249Z 19004KT 09/07 A30 RMK A01 T00920069  RH  086%=      5-min Rain = 0
KSE2 191250Z 18004KT 09/07 A30 RMK A01 T00920070  RH  086%=      5-min Rain = 0
KSE2 191251Z 18004KT 09/07 A30 RMK A01 T00930071  RH  086%=      5-min Rain = 0
KSE2 191252Z 18004KT 09/07 A30 RMK A01 T00930071  RH  086%=      5-min Rain = 0
KSE2 191253Z 17004KT 09/07 A30 RMK A01 T00930071  RH  086%=      5-min Rain = 0
KSE2 191254Z 17004KT 09/07 A30 RMK A01 T00930072  RH  086%=      5-min Rain = 0
KSE2 191255Z 18004KT 09/07 A30 RMK A01 T00940072  RH  086%=      5-min Rain = 0
KSE2 191256Z 18004KT 09/07 A30 RMK A01 T00940073  RH  086%=      5-min Rain = 0
KSE2 191257Z 18004KT 10/07 A30 RMK A01 T00950072  RH  086%=      5-min Rain = 0
KSE2 191258Z 18004KT 10/07 A30 RMK A01 T00950073  RH  086%=      5-min Rain = 0
KSE2 191259Z 18004KT 10/07 A30 RMK A01 T00950074  RH  087%=      5-min Rain = 0
KSE2 191300Z 18004KT 10/07 A30 RMK A01 T00960074  RH  086%=      5-min Rain = 0
KSE2 191301Z 18004KT 10/07 A30 RMK A01 T00960074  RH  086%=      5-min Rain = 0
KSE2 191302Z 18004KT 10/07 A30 RMK A01 T00950073  RH  086%=      5-min Rain = 0
KSE2 191303Z 18004KT 10/07 A30 RMK A01 T00960074  RH  086%=      5-min Rain = 0
KSE2 191304Z 18004KT 10/07 A30 RMK A01 T00960074  RH  086%=      5-min Rain = 0
KSE2 191305Z 18004KT 10/07 A30 RMK A01 T00960074  RH  086%=      5-min Rain = 0
KSE2 191306Z 19004KT 10/07 A3001 RMK A01 T00960074  RH  086%=      5-min Rain = 0
KSE2 191307Z 19004KT 10/07 A3001 RMK A01 T00950073  RH  086%=      5-min Rain = 0
KSE2 191308Z 19004KT 10/07 A3001 RMK A01 T00950074  RH  087%=      5-min Rain = 0
KSE2 191309Z 18004KT 10/07 A3001 RMK A01 T00950074  RH  087%=      5-min Rain = 0
KSE2 191310Z 18004KT 10/08 A3001 RMK A01 T00950075  RH  087%=      5-min Rain = 0
KSE2 191311Z 18004KT 10/08 A3001 RMK A01 T00950075  RH  088%=      5-min Rain = 0
KSE2 191312Z 17004KT 10/08 A3001 RMK A01 T00960075  RH  087%=      5-min Rain = 0
KSE2 191313Z 18004KT 10/08 A30 RMK A01 T00950076  RH  088%=      5-min Rain = 0
KSE2 191314Z 17004KT 10/08 A30 RMK A01 T00960077  RH  088%=      5-min Rain = 0
KSE2 191315Z 17004KT 10/08 A30 RMK A01 T00970076  RH  087%=      5-min Rain = 0
KSE2 191316Z 18004KT 10/08 A30 RMK A01 T00970077  RH  087%=      5-min Rain = 0
KSE2 191317Z 18004KT 10/08 A3001 RMK A01 T00970077  RH  087%=      5-min Rain = 0
KSE2 191318Z 18004KT 10/08 A3001 RMK A01 T00970077  RH  087%=      5-min Rain = 0
KSE2 191319Z 18004KT 10/08 A3001 RMK A01 T00970077  RH  087%=      5-min Rain = 0
KSE2 191320Z 17004KT 10/08 A3001 RMK A01 T00980077  RH  087%=      5-min Rain = 0
KSE2 191321Z 17004KT 10/08 A3001 RMK A01 T00980077  RH  087%=      5-min Rain = 0
KSE2 191322Z 17004KT 10/08 A3001 RMK A01 T00980078  RH  087%=      5-min Rain = 0
KSE2 191323Z 17004KT 10/08 A3001 RMK A01 T00980078  RH  087%=      5-min Rain = 0
KSE2 191324Z 17004KT 10/08 A3001 RMK A01 T00980077  RH  087%=      5-min Rain = 0
KSE2 191325Z 17004KT 10/08 A3001 RMK A01 T00980077  RH  087%=      5-min Rain = 0
KSE2 191326Z 17004KT 10/08 A3001 RMK A01 T00980077  RH  087%=      5-min Rain = 0
KSE2 191327Z 17004KT 10/08 A3001 RMK A01 T00980077  RH  087%=      5-min Rain = 0
KSE2 191328Z 16004KT 10/08 A3001 RMK A01 T00980076  RH  086%=      5-min Rain = 0
KSE2 191329Z 16004KT 10/08 A3001 RMK A01 T00970075  RH  086%=      5-min Rain = 0
KSE2 191330Z 16004KT 10/08 A3001 RMK A01 T00970075  RH  086%=      5-min Rain = 0
KSE2 191331Z 16004KT 10/07 A3001 RMK A01 T00960074  RH  086%=      5-min Rain = 0
KSE2 191332Z 16004KT 10/07 A3001 RMK A01 T00960074  RH  086%=      5-min Rain = 0
KSE2 191333Z 16004KT 10/07 A3001 RMK A01 T00960074  RH  086%=      5-min Rain = 0
KSE2 191334Z 16004KT 10/07 A3001 RMK A01 T00960074  RH  086%=      5-min Rain = 0
KSE2 191335Z 16004KT 10/07 A3001 RMK A01 T00960074  RH  086%=      5-min Rain = 0
KSE2 191336Z 16004KT 10/07 A3001 RMK A01 T00960073  RH  086%=      5-min Rain = 0
KSE2 191337Z 16004KT 10/07 A3001 RMK A01 T00960073  RH  085%=      5-min Rain = 0
KSE2 191338Z 16004KT 10/07 A3001 RMK A01 T00970073  RH  085%=      5-min Rain = 0
KSE2 191339Z 16004KT 10/07 A3001 RMK A01 T00970074  RH  085%=      5-min Rain = 0
KSE2 191340Z 16004KT 10/07 A3001 RMK A01 T00980074  RH  085%=      5-min Rain = 0
KSE2 191341Z 16004KT 10/08 A3001 RMK A01 T00980075  RH  085%=      5-min Rain = 0
KSE2 191342Z 17003KT 10/08 A3001 RMK A01 T00990075  RH  085%=      5-min Rain = 0
KSE2 191343Z 17003KT 10/08 A3001 RMK A01 T01000076  RH  085%=      5-min Rain = 0
KSE2 191344Z 17002KT 10/08 A3001 RMK A01 T01010077  RH  085%=      5-min Rain = 0
KSE2 191345Z 17003KT 10/08 A3001 RMK A01 T01020077  RH  085%=      5-min Rain = 0
KSE2 191346Z 17003KT 10/08 A3001 RMK A01 T01030077  RH  084%=      5-min Rain = 0
KSE2 191347Z 16003KT 10/08 A3001 RMK A01 T01030077  RH  084%=      5-min Rain = 0
KSE2 191348Z 16003KT 10/08 A3001 RMK A01 T01030076  RH  083%=      5-min Rain = 0
KSE2 191349Z 16003KT 10/08 A3001 RMK A01 T01030075  RH  083%=      5-min Rain = 0
KSE2 191350Z 16003KT 10/07 A3001 RMK A01 T01020074  RH  083%=      5-min Rain = 0
KSE2 191351Z 17003KT 10/08 A3001 RMK A01 T01020075  RH  083%=      5-min Rain = 0
KSE2 191352Z 17003KT 10/08 A3001 RMK A01 T01030077  RH  084%=      5-min Rain = 0
KSE2 191353Z 16003KT 10/08 A3001 RMK A01 T01030077  RH  084%=      5-min Rain = 0
KSE2 191354Z 16003KT 10/08 A3001 RMK A01 T01040077  RH  084%=      5-min Rain = 0
KSE2 191355Z 16003KT 10/08 A3001 RMK A01 T01040078  RH  084%=      5-min Rain = 0
KSE2 191356Z 16003KT 10/08 A3001 RMK A01 T01040078  RH  084%=      5-min Rain = 0
KSE2 191357Z 17002KT 10/08 A3001 RMK A01 T01040078  RH  084%=      5-min Rain = 0
KSE2 191358Z 17002KT 11/08 A3001 RMK A01 T01050079  RH  084%=      5-min Rain = 0
KSE2 191359Z 16003KT 10/08 A3001 RMK A01 T01040078  RH  084%=      5-min Rain = 0
KSE2 191400Z 17002KT 11/08 A3001 RMK A01 T01050079  RH  084%=      5-min Rain = 0
KSE2 191401Z 16003KT 11/08 A3001 RMK A01 T01050079  RH  084%=      5-min Rain = 0
KSE2 191402Z 16003KT 10/08 A3001 RMK A01 T01040079  RH  084%=      5-min Rain = 0
KSE2 191403Z 16003KT 11/08 A3002 RMK A01 T01050080  RH  084%=      5-min Rain = 0
KSE2 191404Z 16003KT 11/08 A3002 RMK A01 T01050080  RH  085%=      5-min Rain = 0
KSE2 191405Z 16003KT 11/08 A3002 RMK A01 T01060082  RH  085%=      5-min Rain = 0
KSE2 191406Z 16003KT 11/08 A3002 RMK A01 T01060082  RH  085%=      5-min Rain = 0
KSE2 191407Z 16003KT 11/08 A3002 RMK A01 T01070084  RH  085%=      5-min Rain = 0
KSE2 191408Z 17003KT 11/09 A3002 RMK A01 T01090085  RH  085%=      5-min Rain = 0
KSE2 191409Z 16003KT 11/09 A3002 RMK A01 T01100085  RH  085%=      5-min Rain = 0
KSE2 191410Z 16003KT 11/09 A3002 RMK A01 T01110085  RH  084%=      5-min Rain = 0
KSE2 191411Z 16003KT 11/09 A3002 RMK A01 T01110085  RH  084%=      5-min Rain = 0
KSE2 191412Z 16003KT 11/09 A3002 RMK A01 T01110086  RH  084%=      5-min Rain = 0
KSE2 191413Z 16003KT 11/09 A3002 RMK A01 T01120086  RH  084%=      5-min Rain = 0
KSE2 191414Z 15003KT 11/09 A3002 RMK A01 T01120086  RH  084%=      5-min Rain = 0
KSE2 191415Z 16002KT 11/09 A3002 RMK A01 T01140088  RH  084%=      5-min Rain = 0
KSE2 191416Z 16002KT 12/09 A3002 RMK A01 T01150089  RH  084%=      5-min Rain = 0
KSE2 191417Z 17003KT 12/09 A3002 RMK A01 T01170089  RH  083%=      5-min Rain = 0
KSE2 191418Z 16002KT 12/09 A3002 RMK A01 T01180091  RH  083%=      5-min Rain = 0
KSE2 191419Z 16002KT 12/09 A3002 RMK A01 T01190091  RH  083%=      5-min Rain = 0
KSE2 191420Z 16003KT 12/09 A3002 RMK A01 T01200091  RH  082%=      5-min Rain = 0
KSE2 191421Z 16004KT 12/09 A3002 RMK A01 T01210091  RH  082%=      5-min Rain = 0
KSE2 191422Z 16004KT 12/09 A3002 RMK A01 T01210092  RH  082%=      5-min Rain = 0
KSE2 191423Z 16003KT 12/09 A3002 RMK A01 T01210091  RH  082%=      5-min Rain = 0
KSE2 191424Z 16003KT 12/09 A3002 RMK A01 T01210091  RH  082%=      5-min Rain = 0
KSE2 191425Z 16003KT 12/09 A3002 RMK A01 T01210092  RH  083%=      5-min Rain = 0
KSE2 191426Z 16004KT 12/09 A3002 RMK A01 T01210092  RH  083%=      5-min Rain = 0
KSE2 191427Z 16003KT 12/09 A3002 RMK A01 T01200092  RH  083%=      5-min Rain = 0
KSE2 191428Z 16004KT 12/09 A3002 RMK A01 T01210093  RH  083%=      5-min Rain = 0
KSE2 191429Z 16003KT 12/09 A3002 RMK A01 T01200093  RH  083%=      5-min Rain = 0
KSE2 191430Z 16003KT 12/09 A3002 RMK A01 T01200092  RH  083%=      5-min Rain = 0
KSE2 191431Z 16003KT 12/09 A3002 RMK A01 T01200092  RH  083%=      5-min Rain = 0
KSE2 191432Z 16003KT 12/09 A3002 RMK A01 T01200092  RH  083%=      5-min Rain = 0
KSE2 191433Z 16003KT 12/09 A3002 RMK A01 T01210093  RH  083%=      5-min Rain = 0
KSE2 191434Z 16003KT 12/09 A3002 RMK A01 T01220094  RH  083%=      5-min Rain = 0
KSE2 191435Z 16004KT 12/10 A3002 RMK A01 T01230095  RH  083%=      5-min Rain = 0
KSE2 191436Z 16004KT 12/10 A3002 RMK A01 T01240095  RH  083%=      5-min Rain = 0
KSE2 191437Z 16003KT 12/10 A3002 RMK A01 T01240095  RH  082%=      5-min Rain = 0
KSE2 191438Z 17003KT 13/10 A3002 RMK A01 T01260096  RH  082%=      5-min Rain = 0
KSE2 191439Z 18003KT 13/10 A3003 RMK A01 T01270097  RH  082%=      5-min Rain = 0
KSE2 191440Z 17003KT 13/10 A3003 RMK A01 T01290098  RH  082%=      5-min Rain = 0
KSE2 191441Z 18004KT 13/10 A3003 RMK A01 T01300099  RH  081%=      5-min Rain = 0
KSE2 191442Z 16003KT 13/10 A3003 RMK A01 T01320100  RH  081%=      5-min Rain = 0
KSE2 191443Z 17004KT 13/10 A3003 RMK A01 T01340100  RH  080%=      5-min Rain = 0
KSE2 191444Z 17003KT 14/10 A3003 RMK A01 T01350100  RH  079%=      5-min Rain = 0
KSE2 191445Z 17002KT 14/10 A3003 RMK A01 T01360101  RH  079%=      5-min Rain = 0
KSE2 191446Z 18004KT 14/10 A3003 RMK A01 T01370101  RH  079%=      5-min Rain = 0
KSE2 191447Z 17003KT 14/10 A3003 RMK A01 T01370101  RH  078%=      5-min Rain = 0
KSE2 191448Z 17005KT 14/10 A3003 RMK A01 T01370100  RH  078%=      5-min Rain = 0
KSE2 191449Z 17004KT 14/10 A3003 RMK A01 T01370100  RH  078%=      5-min Rain = 0
KSE2 191450Z 17005KT 14/10 A3003 RMK A01 T01380101  RH  078%=      5-min Rain = 0
KSE2 191451Z 16004KT 14/10 A3003 RMK A01 T01370100  RH  078%=      5-min Rain = 0
KSE2 191452Z 16004KT 14/10 A3002 RMK A01 T01380101  RH  078%=      5-min Rain = 0
KSE2 191453Z 16004KT 14/10 A3002 RMK A01 T01380101  RH  078%=      5-min Rain = 0
KSE2 191454Z 16003KT 14/10 A3002 RMK A01 T01380102  RH  079%=      5-min Rain = 0
KSE2 191455Z 16003KT 14/10 A3002 RMK A01 T01400103  RH  079%=      5-min Rain = 0
KSE2 191456Z 16004KT 14/10 A3002 RMK A01 T01400102  RH  078%=      5-min Rain = 0
KSE2 191457Z 15004KT 14/10 A3002 RMK A01 T01410103  RH  078%=      5-min Rain = 0
KSE2 191458Z 15004KT 14/10 A3002 RMK A01 T01420104  RH  078%=      5-min Rain = 0
KSE2 191459Z 16004KT 14/10 A3002 RMK A01 T01420104  RH  078%=      5-min Rain = 0
KSE2 191500Z 15004KT 14/10 A3002 RMK A01 T01420104  RH  077%=      5-min Rain = 0
KSE2 191501Z 15005KT 14/10 A3002 RMK A01 T01420103  RH  077%=      5-min Rain = 0
KSE2 191502Z 14004KT 14/10 A3002 RMK A01 T01420103  RH  077%=      5-min Rain = 0
KSE2 191503Z 15004KT 14/10 A3002 RMK A01 T01410103  RH  078%=      5-min Rain = 0
KSE2 191504Z 15004KT 14/10 A3002 RMK A01 T01410103  RH  078%=      5-min Rain = 0
KSE2 191505Z 15005KT 14/10 A3002 RMK A01 T01410104  RH  078%=      5-min Rain = 0
KSE2 191506Z 16005KT 14/10 A3003 RMK A01 T01410104  RH  078%=      5-min Rain = 0
KSE2 191507Z 15005KT 14/11 A3003 RMK A01 T01420105  RH  078%=      5-min Rain = 0
KSE2 191508Z 16005KT 14/11 A3003 RMK A01 T01430105  RH  078%=      5-min Rain = 0
KSE2 191509Z 16005KT 14/11 A3003 RMK A01 T01440107  RH  078%=      5-min Rain = 0
KSE2 191510Z 16005KT 15/11 A3003 RMK A01 T01460107  RH  078%=      5-min Rain = 0
KSE2 191511Z 16006KT 15/11 A3003 RMK A01 T01470107  RH  077%=      5-min Rain = 0
KSE2 191512Z 16004KT 15/11 A3003 RMK A01 T01480108  RH  077%=      5-min Rain = 0
KSE2 191513Z 16004KT 15/11 A3003 RMK A01 T01500110  RH  077%=      5-min Rain = 0
KSE2 191514Z 17004KT 15/11 A3003 RMK A01 T01510110  RH  077%=      5-min Rain = 0
KSE2 191515Z 17005KT 15/11 A3003 RMK A01 T01520111  RH  076%=      5-min Rain = 0
KSE2 191516Z 17003KT 15/11 A3003 RMK A01 T01540111  RH  076%=      5-min Rain = 0
KSE2 191517Z 16005KT 16/11 A3003 RMK A01 T01550112  RH  075%=      5-min Rain = 0
KSE2 191518Z 16006KT 16/11 A3003 RMK A01 T01560110  RH  074%=      5-min Rain = 0
KSE2 191519Z 15004KT 16/11 A3003 RMK A01 T01570111  RH  074%=      5-min Rain = 0
KSE2 191520Z 16005KT 16/11 A3003 RMK A01 T01580111  RH  074%=      5-min Rain = 0
KSE2 191521Z 16004KT 16/11 A3003 RMK A01 T01580113  RH  074%=      5-min Rain = 0
KSE2 191522Z 15006KT 16/11 A3003 RMK A01 T01610114  RH  074%=      5-min Rain = 0
KSE2 191523Z 15006KT 16/11 A3003 RMK A01 T01630112  RH  072%=      5-min Rain = 0
KSE2 191524Z 15004KT 16/11 A3003 RMK A01 T01620111  RH  072%=      5-min Rain = 0
KSE2 191525Z 14004KT 16/11 A3003 RMK A01 T01620113  RH  073%=      5-min Rain = 0
KSE2 191526Z 14005KT 16/11 A3003 RMK A01 T01640114  RH  072%=      5-min Rain = 0
KSE2 191527Z 14004KT 17/11 A3003 RMK A01 T01650114  RH  072%=      5-min Rain = 0
KSE2 191528Z 15003KT 17/12 A3003 RMK A01 T01670115  RH  072%=      5-min Rain = 0
KSE2 191529Z 15005KT 17/12 A3003 RMK A01 T01690116  RH  071%=      5-min Rain = 0
KSE2 191530Z 15005KT 17/12 A3003 RMK A01 T01700116  RH  070%=      5-min Rain = 0
KSE2 191531Z 15003KT 17/12 A3003 RMK A01 T01720116  RH  070%=      5-min Rain = 0
KSE2 191532Z 15006KT 17/12 A3003 RMK A01 T01730116  RH  069%=      5-min Rain = 0
KSE2 191533Z 15006KT 17/11 A3003 RMK A01 T01740113  RH  067%=      5-min Rain = 0
KSE2 191534Z 17006KT 17/11 A3003 RMK A01 T01740113  RH  067%=      5-min Rain = 0
KSE2 191535Z 19005KT 18/11 A3003 RMK A01 T01760114  RH  067%=      5-min Rain = 0
KSE2 191536Z 18006KT 18/11 A3003 RMK A01 T01770113  RH  066%=      5-min Rain = 0
KSE2 191537Z 16006KT 18/11 A3003 RMK A01 T01780114  RH  066%=      5-min Rain = 0
KSE2 191538Z 16006KT 18/11 A3003 RMK A01 T01790113  RH  065%=      5-min Rain = 0
KSE2 191539Z 16007KT 18/11 A3003 RMK A01 T01790113  RH  065%=      5-min Rain = 0
KSE2 191540Z 16007KT 18/11 A3003 RMK A01 T01780111  RH  065%=      5-min Rain = 0
KSE2 191541Z 18006KT 18/11 A3004 RMK A01 T01790113  RH  065%=      5-min Rain = 0
KSE2 191542Z 19006KT 18/11 A3004 RMK A01 T01800114  RH  065%=      5-min Rain = 0
KSE2 191543Z 17005KT 18/12 A3004 RMK A01 T01830115  RH  064%=      5-min Rain = 0
KSE2 191544Z 19007KT 18/11 A3004 RMK A01 T01840113  RH  063%=      5-min Rain = 0
KSE2 191545Z 18007KT 18/11 A3004 RMK A01 T01840113  RH  063%=      5-min Rain = 0
KSE2 191546Z 18008KT 18/11 A3004 RMK A01 T01830112  RH  063%=      5-min Rain = 0
KSE2 191547Z 18008KT 18/11 A3004 RMK A01 T01830110  RH  062%=      5-min Rain = 0
KSE2 191548Z 17008KT 18/11 A3004 RMK A01 T01830110  RH  062%=      5-min Rain = 0
KSE2 191549Z 18007KT 18/11 A3004 RMK A01 T01830111  RH  063%=      5-min Rain = 0
KSE2 191550Z 17007KT 18/11 A3004 RMK A01 T01830110  RH  063%=      5-min Rain = 0
KSE2 191551Z 16006KT 18/11 A3004 RMK A01 T01830111  RH  063%=      5-min Rain = 0
KSE2 191552Z 17008KT 18/11 A3004 RMK A01 T01840111  RH  062%=      5-min Rain = 0
KSE2 191553Z 16008KT 18/11 A3004 RMK A01 T01840111  RH  062%=      5-min Rain = 0
KSE2 191554Z 18006KT 18/11 A3004 RMK A01 T01840111  RH  062%=      5-min Rain = 0
KSE2 191555Z 17005KT 19/11 A3004 RMK A01 T01850113  RH  063%=      5-min Rain = 0
KSE2 191556Z 18005KT 19/11 A3004 RMK A01 T01860113  RH  062%=      5-min Rain = 0
KSE2 191557Z 17007KT 19/11 A3004 RMK A01 T01870113  RH  062%=      5-min Rain = 0
KSE2 191558Z 18008KT 19/11 A3004 RMK A01 T01870112  RH  061%=      5-min Rain = 0
KSE2 191559Z 16007KT 19/11 A3004 RMK A01 T01870112  RH  062%=      5-min Rain = 0
KSE2 191600Z 18006KT 19/11 A3004 RMK A01 T01870111  RH  061%=      5-min Rain = 0
KSE2 191601Z 17007KT 19/11 A3004 RMK A01 T01870112  RH  062%=      5-min Rain = 0
KSE2 191602Z 19004KT 19/11 A3004 RMK A01 T01890113  RH  061%=      5-min Rain = 0
KSE2 191603Z 20005KT 19/12 A3004 RMK A01 T01900115  RH  061%=      5-min Rain = 0
KSE2 191604Z 20008KT 19/11 A3004 RMK A01 T01910113  RH  061%=      5-min Rain = 0
KSE2 191605Z 19005KT 19/11 A3004 RMK A01 T01910113  RH  061%=      5-min Rain = 0
KSE2 191606Z 20006KT 19/11 A3004 RMK A01 T01900114  RH  061%=      5-min Rain = 0
KSE2 191607Z 20006KT 19/11 A3004 RMK A01 T01900113  RH  061%=      5-min Rain = 0
KSE2 191608Z 20006KT 19/11 A3004 RMK A01 T01890113  RH  061%=      5-min Rain = 0
KSE2 191609Z 20004KT 19/11 A3004 RMK A01 T01890112  RH  061%=      5-min Rain = 0
KSE2 191610Z 19004KT 19/11 A3004 RMK A01 T01900114  RH  062%=      5-min Rain = 0
KSE2 191611Z 20004KT 19/12 A3004 RMK A01 T01930117  RH  061%=      5-min Rain = 0
KSE2 191612Z 18005KT 20/12 A3004 RMK A01 T01960116  RH  060%=      5-min Rain = 0
KSE2 191613Z 17004KT 20/12 A3004 RMK A01 T01970115  RH  059%=      5-min Rain = 0
KSE2 191614Z 17006KT 20/12 A3004 RMK A01 T01980116  RH  059%=      5-min Rain = 0
KSE2 191615Z 18008KT 20/11 A3004 RMK A01 T01980111  RH  057%=      5-min Rain = 0
KSE2 191616Z 18007KT 20/11 A3004 RMK A01 T01960110  RH  058%=      5-min Rain = 0
KSE2 191617Z 18006KT 20/11 A3004 RMK A01 T01950111  RH  058%=      5-min Rain = 0
KSE2 191618Z 17006KT 20/11 A3004 RMK A01 T01950112  RH  059%=      5-min Rain = 0
KSE2 191619Z 18005KT 20/11 A3004 RMK A01 T01960112  RH  058%=      5-min Rain = 0
KSE2 191620Z 16004KT 20/11 A3004 RMK A01 T01980114  RH  058%=      5-min Rain = 0
KSE2 191621Z 16004KT 20/12 A3004 RMK A01 T02020116  RH  058%=      5-min Rain = 0
KSE2 191622Z 19006KT 21/11 A3004 RMK A01 T02050114  RH  056%=      5-min Rain = 0
KSE2 191623Z 20005KT 21/11 A3004 RMK A01 T02050109  RH  054%=      5-min Rain = 0
KSE2 191624Z 18006KT 21/11 A3004 RMK A01 T02050110  RH  054%=      5-min Rain = 0
KSE2 191625Z 18006KT 21/11 A3004 RMK A01 T02060108  RH  053%=      5-min Rain = 0
KSE2 191626Z 18008KT 21/11 A3004 RMK A01 T02080107  RH  052%=      5-min Rain = 0
KSE2 191627Z 18009KT 21/10 A3004 RMK A01 T02090104  RH  051%=      5-min Rain = 0
KSE2 191628Z 19008KT 21/10 A3004 RMK A01 T02090101  RH  050%=      5-min Rain = 0
KSE2 191629Z 19009KT 21/10 A3004 RMK A01 T02080103  RH  051%=      5-min Rain = 0
KSE2 191630Z 21009KT 21/10 A3004 RMK A01 T02070100  RH  050%=      5-min Rain = 0
KSE2 191631Z 18006KT 21/10 A3004 RMK A01 T02050103  RH  052%=      5-min Rain = 0
KSE2 191632Z 18006KT 21/10 A3004 RMK A01 T02060104  RH  052%=      5-min Rain = 0
KSE2 191633Z 18004KT 21/10 A3004 RMK A01 T02070104  RH  052%=      5-min Rain = 0
KSE2 191634Z 18009KT 21/10 A3004 RMK A01 T02070103  RH  051%=      5-min Rain = 0
KSE2 191635Z 17007KT 21/10 A3004 RMK A01 T02070104  RH  051%=      5-min Rain = 0
KSE2 191636Z 18008KT 21/10 A3004 RMK A01 T02070103  RH  051%=      5-min Rain = 0
KSE2 191637Z 16006KT 21/10 A3004 RMK A01 T02080103  RH  051%=      5-min Rain = 0
KSE2 191638Z 18004KT 21/11 A3004 RMK A01 T02090105  RH  051%=      5-min Rain = 0
KSE2 191639Z 18004KT 21/11 A3004 RMK A01 T02110108  RH  052%=      5-min Rain = 0
KSE2 191640Z 19005KT 21/11 A3004 RMK A01 T02120107  RH  051%=      5-min Rain = 0
KSE2 191641Z 19007KT 21/11 A3004 RMK A01 T02130107  RH  051%=      5-min Rain = 0
KSE2 191642Z 19006KT 21/11 A3004 RMK A01 T02140106  RH  050%=      5-min Rain = 0
KSE2 191643Z 17007KT 21/11 A3004 RMK A01 T02130105  RH  050%=      5-min Rain = 0
KSE2 191644Z 17007KT 21/11 A3004 RMK A01 T02130106  RH  051%=      5-min Rain = 0
KSE2 191645Z 18007KT 21/11 A3004 RMK A01 T02140106  RH  050%=      5-min Rain = 0
KSE2 191646Z 20008KT 21/10 A3004 RMK A01 T02140104  RH  049%=      5-min Rain = 0
KSE2 191647Z 20008KT 21/10 A3004 RMK A01 T02120104  RH  050%=      5-min Rain = 0
KSE2 191648Z 19008KT 21/10 A3004 RMK A01 T02120104  RH  050%=      5-min Rain = 0
KSE2 191649Z 20005KT 21/10 A3004 RMK A01 T02110104  RH  050%=      5-min Rain = 0
KSE2 191650Z 20005KT 21/11 A3004 RMK A01 T02110106  RH  051%=      5-min Rain = 0
KSE2 191651Z 19005KT 21/11 A3004 RMK A01 T02130106  RH  051%=      5-min Rain = 0
KSE2 191652Z 20006KT 21/11 A3004 RMK A01 T02140109  RH  051%=      5-min Rain = 0
KSE2 191653Z 21008KT 22/10 A3004 RMK A01 T02160103  RH  049%=      5-min Rain = 0
KSE2 191654Z 19007KT 22/10 A3004 RMK A01 T02170103  RH  048%=      5-min Rain = 0
KSE2 191655Z 18007KT 22/10 A3004 RMK A01 T02160102  RH  048%=      5-min Rain = 0
KSE2 191656Z 20009KT 22/10 A3004 RMK A01 T02160102  RH  048%=      5-min Rain = 0
KSE2 191657Z 20008KT 22/10 A3004 RMK A01 T02150101  RH  048%=      5-min Rain = 0
KSE2 191658Z 20009KT 22/10 A3004 RMK A01 T02150101  RH  048%=      5-min Rain = 0
KSE2 191659Z 18008KT 21/10 A3004 RMK A01 T02130100  RH  048%=      5-min Rain = 0
KSE2 191700Z 17006KT 21/10 A3004 RMK A01 T02140103  RH  049%=      5-min Rain = 0
KSE2 191701Z 17008KT 22/10 A3003 RMK A01 T02160102  RH  048%=      5-min Rain = 0
KSE2 191702Z 18008KT 22/10 A3003 RMK A01 T02180103  RH  048%=      5-min Rain = 0
KSE2 191703Z 19007KT 22/10 A3003 RMK A01 T02190098  RH  046%=      5-min Rain = 0
KSE2 191704Z 18007KT 22/10 A3003 RMK A01 T02190100  RH  047%=      5-min Rain = 0
KSE2 191705Z 19007KT 22/10 A3003 RMK A01 T02200099  RH  046%=      5-min Rain = 0
KSE2 191706Z 19010KT 22/10 A3003 RMK A01 T02210097  RH  045%=      5-min Rain = 0
KSE2 191707Z 20010KT 22/09 A3003 RMK A01 T02200092  RH  044%=      5-min Rain = 0
KSE2 191708Z 20009KT 22/09 A3003 RMK A01 T02200091  RH  044%=      5-min Rain = 0
KSE2 191709Z 18008KT 22/09 A3003 RMK A01 T02200092  RH  044%=      5-min Rain = 0
KSE2 191710Z 20006KT 22/09 A3003 RMK A01 T02210094  RH  044%=      5-min Rain = 0
KSE2 191711Z 20009KT 22/10 A3003 RMK A01 T02230096  RH  044%=      5-min Rain = 0
KSE2 191712Z 19009KT 22/09 A3003 RMK A01 T02240093  RH  043%=      5-min Rain = 0
KSE2 191713Z 19008KT 22/09 A3003 RMK A01 T02230091  RH  043%=      5-min Rain = 0
KSE2 191714Z 21009KT 22/09 A3003 RMK A01 T02240092  RH  043%=      5-min Rain = 0
KSE2 191715Z 20008KT 22/09 A3003 RMK A01 T02240090  RH  042%=      5-min Rain = 0
KSE2 191716Z 19006KT 22/09 A3003 RMK A01 T02230091  RH  043%=      5-min Rain = 0
KSE2 191717Z 20008KT 22/09 A3003 RMK A01 T02230092  RH  043%=      5-min Rain = 0
KSE2 191718Z 18009KT 22/09 A3003 RMK A01 T02230090  RH  043%=      5-min Rain = 0
KSE2 191719Z 18008KT 22/09 A3003 RMK A01 T02230091  RH  043%=      5-min Rain = 0
KSE2 191720Z 17009KT 22/09 A3003 RMK A01 T02240094  RH  044%=      5-min Rain = 0
KSE2 191721Z 16008KT 23/09 A3002 RMK A01 T02270094  RH  043%=      5-min Rain = 0
KSE2 191722Z 17009KT 23/09 A3003 RMK A01 T02280093  RH  042%=      5-min Rain = 0
KSE2 191723Z 17008KT 23/09 A3002 RMK A01 T02270089  RH  041%=      5-min Rain = 0
KSE2 191724Z 16009KT 23/09 A3002 RMK A01 T02260089  RH  041%=      5-min Rain = 0
KSE2 191725Z 16011KT 23/08 A3002 RMK A01 T02260084  RH  040%=      5-min Rain = 0
KSE2 191726Z 18010KT 23/09 A3002 RMK A01 T02250085  RH  041%=      5-min Rain = 0
KSE2 191727Z 19009KT 23/09 A3002 RMK A01 T02260087  RH  041%=      5-min Rain = 0
KSE2 191728Z 19009KT 23/09 A3002 RMK A01 T02260087  RH  041%=      5-min Rain = 0
KSE2 191729Z 19009KT 23/09 A3002 RMK A01 T02270086  RH  041%=      5-min Rain = 0
KSE2 191730Z 19008KT 23/09 A3002 RMK A01 T02270088  RH  041%=      5-min Rain = 0
KSE2 191731Z 20008KT 23/09 A3002 RMK A01 T02290088  RH  041%=      5-min Rain = 0
KSE2 191732Z 20008KT 23/09 A3002 RMK A01 T02290088  RH  040%=      5-min Rain = 0
KSE2 191733Z 20007KT 23/09 A3002 RMK A01 T02270089  RH  041%=      5-min Rain = 0
KSE2 191734Z 20006KT 23/09 A3002 RMK A01 T02270090  RH  042%=      5-min Rain = 0
KSE2 191735Z 17007G12KT 23/09 A3002 RMK A01 T02300092  RH  042%=      5-min Rain = 0
KSE2 191736Z 16008KT 23/09 A3002 RMK A01 T02320092  RH  041%=      5-min Rain = 0
KSE2 191737Z 15009KT 23/09 A3002 RMK A01 T02320091  RH  041%=      5-min Rain = 0
KSE2 191738Z 16011KT 23/09 A3002 RMK A01 T02300089  RH  041%=      5-min Rain = 0
KSE2 191739Z 16011KT 23/08 A3002 RMK A01 T02280083  RH  039%=      5-min Rain = 0
KSE2 191740Z 18012KT 23/08 A3002 RMK A01 T02270083  RH  040%=      5-min Rain = 0
KSE2 191741Z 18010KT 23/08 A3002 RMK A01 T02270084  RH  040%=      5-min Rain = 0
KSE2 191742Z 18008KT 23/09 A3002 RMK A01 T02280086  RH  040%=      5-min Rain = 0
KSE2 191743Z 20010KT 23/09 A3002 RMK A01 T02280086  RH  040%=      5-min Rain = 0
KSE2 191744Z 19005KT 23/09 A3002 RMK A01 T02270088  RH  041%=      5-min Rain = 0
KSE2 191745Z 21009KT 23/09 A3001 RMK A01 T02290089  RH  041%=      5-min Rain = 0
KSE2 191746Z 20010KT 23/09 A3001 RMK A01 T02300086  RH  040%=      5-min Rain = 0
KSE2 191747Z 20009KT 23/09 A3001 RMK A01 T02290088  RH  040%=      5-min Rain = 0
KSE2 191748Z 20009KT 23/09 A3001 RMK A01 T02310088  RH  040%=      5-min Rain = 0
KSE2 191749Z 18011KT 23/09 A3001 RMK A01 T02330085  RH  039%=      5-min Rain = 0
KSE2 191750Z 19009G14KT 23/08 A3001 RMK A01 T02320083  RH  038%=      5-min Rain = 0
KSE2 191751Z 19009KT 23/09 A3001 RMK A01 T02320086  RH  039%=      5-min Rain = 0
KSE2 191752Z 18009KT 23/09 A3001 RMK A01 T02330089  RH  040%=      5-min Rain = 0
KSE2 191753Z 18009KT 23/09 A3001 RMK A01 T02340092  RH  040%=      5-min Rain = 0
KSE2 191754Z 19008KT 23/09 A3001 RMK A01 T02340093  RH  041%=      5-min Rain = 0
KSE2 191755Z 19006KT 24/09 A3001 RMK A01 T02350092  RH  040%=      5-min Rain = 0
KSE2 191756Z 19009KT 24/09 A3001 RMK A01 T02350093  RH  041%=      5-min Rain = 0
KSE2 191757Z 19010KT 24/09 A3001 RMK A01 T02360089  RH  039%=      5-min Rain = 0
KSE2 191758Z 20009KT 24/09 A3001 RMK A01 T02350087  RH  039%=      5-min Rain = 0
KSE2 191759Z 21012KT 24/08 A3001 RMK A01 T02360083  RH  038%=      5-min Rain = 0
KSE2 191800Z 20010KT 24/08 A3001 RMK A01 T02350082  RH  037%=      5-min Rain = 0
KSE2 191801Z 20011KT 24/08 A3001 RMK A01 T02350082  RH  038%=      5-min Rain = 0
KSE2 191802Z 19012KT 24/08 A3001 RMK A01 T02350084  RH  038%=      5-min Rain = 0
KSE2 191803Z 20007G13KT 23/09 A3001 RMK A01 T02340086  RH  039%=      5-min Rain = 0
KSE2 191804Z 21010KT 24/09 A3001 RMK A01 T02360088  RH  039%=      5-min Rain = 0
KSE2 191805Z 20008KT 24/09 A30 RMK A01 T02370087  RH  039%=      5-min Rain = 0
KSE2 191806Z 19010G16KT 24/09 A30 RMK A01 T02360090  RH  039%=      5-min Rain = 0
KSE2 191807Z 20013KT 24/09 A30 RMK A01 T02360087  RH  039%=      5-min Rain = 0
KSE2 191808Z 20010KT 23/09 A30 RMK A01 T02330088  RH  040%=      5-min Rain = 0
KSE2 191809Z 20010KT 23/09 A30 RMK A01 T02330085  RH  039%=      5-min Rain = 0
KSE2 191810Z 21009KT 23/09 A30 RMK A01 T02340086  RH  039%=      5-min Rain = 0
KSE2 191811Z 21010KT 24/09 A30 RMK A01 T02360086  RH  038%=      5-min Rain = 0
KSE2 191812Z 20008KT 24/09 A30 RMK A01 T02370089  RH  039%=      5-min Rain = 0
KSE2 191813Z 20013KT 24/09 A30 RMK A01 T02380090  RH  039%=      5-min Rain = 0
KSE2 191814Z 20008G13KT 24/09 A30 RMK A01 T02380088  RH  038%=      5-min Rain = 0
KSE2 191815Z 20009KT 24/09 A30 RMK A01 T02380087  RH  038%=      5-min Rain = 0
KSE2 191816Z 21010KT 24/09 A30 RMK A01 T02390088  RH  038%=      5-min Rain = 0
KSE2 191817Z 19011KT 24/09 A30 RMK A01 T02390089  RH  038%=      5-min Rain = 0
KSE2 191818Z 20009KT 24/09 A30 RMK A01 T02360087  RH  039%=      5-min Rain = 0
KSE2 191819Z 22008KT 23/09 A30 RMK A01 T02340089  RH  039%=      5-min Rain = 0
KSE2 191820Z 19009KT 24/09 A30 RMK A01 T02350088  RH  039%=      5-min Rain = 0
KSE2 191821Z 20011KT 24/09 A30 RMK A01 T02350088  RH  039%=      5-min Rain = 0
KSE2 191822Z 21013KT 23/08 A30 RMK A01 T02340084  RH  038%=      5-min Rain = 0
KSE2 191823Z 20009KT 23/08 A2999 RMK A01 T02330084  RH  038%=      5-min Rain = 0
KSE2 191824Z 19008KT 23/09 A2999 RMK A01 T02330085  RH  039%=      5-min Rain = 0
KSE2 191825Z 21009KT 24/08 A2999 RMK A01 T02360084  RH  038%=      5-min Rain = 0
KSE2 191826Z 19006KT 24/09 A2999 RMK A01 T02380085  RH  038%=      5-min Rain = 0
KSE2 191827Z 21010KT 24/09 A2999 RMK A01 T02420088  RH  037%=      5-min Rain = 0
KSE2 191828Z 21008KT 24/08 A2999 RMK A01 T02440082  RH  036%=      5-min Rain = 0
KSE2 191829Z 20009G14KT 24/08 A2999 RMK A01 T02430081  RH  036%=      5-min Rain = 0
KSE2 191830Z 20012KT 24/08 A2999 RMK A01 T02440080  RH  035%=      5-min Rain = 0
KSE2 191831Z 21011KT 24/08 A2999 RMK A01 T02430081  RH  035%=      5-min Rain = 0
KSE2 191832Z 20010KT 24/08 A2999 RMK A01 T02420078  RH  035%=      5-min Rain = 0
KSE2 191833Z 20011KT 24/08 A2999 RMK A01 T02410079  RH  035%=      5-min Rain = 0
KSE2 191834Z 21011KT 24/08 A2999 RMK A01 T02400081  RH  036%=      5-min Rain = 0
KSE2 191835Z 21010KT 24/08 A2999 RMK A01 T02380081  RH  036%=      5-min Rain = 0
KSE2 191836Z 20007KT 24/09 A2999 RMK A01 T02390085  RH  037%=      5-min Rain = 0
KSE2 191837Z 19011KT 24/08 A2999 RMK A01 T02430084  RH  036%=      5-min Rain = 0
KSE2 191838Z 19011KT 24/08 A2999 RMK A01 T02430081  RH  036%=      5-min Rain = 0
KSE2 191839Z 19008G13KT 24/08 A2998 RMK A01 T02420082  RH  036%=      5-min Rain = 0
KSE2 191840Z 19008KT 24/08 A2998 RMK A01 T02420080  RH  036%=      5-min Rain = 0
KSE2 191841Z 18009KT 24/08 A2998 RMK A01 T02420084  RH  036%=      5-min Rain = 0
KSE2 191842Z 19008G13KT 24/09 A2998 RMK A01 T02440085  RH  036%=      5-min Rain = 0
KSE2 191843Z 18007G12KT 25/08 A2998 RMK A01 T02460082  RH  035%=      5-min Rain = 0
KSE2 191844Z 16007KT 25/08 A2998 RMK A01 T02480078  RH  034%=      5-min Rain = 0
KSE2 191845Z 16010KT 25/07 A2998 RMK A01 T02510074  RH  032%=      5-min Rain = 0
KSE2 191846Z 17010KT 25/07 A2998 RMK A01 T02490071  RH  032%=      5-min Rain = 0
KSE2 191847Z 16009KT 25/07 A2998 RMK A01 T02460069  RH  032%=      5-min Rain = 0
KSE2 191848Z 17009KT 25/07 A2998 RMK A01 T02460070  RH  032%=      5-min Rain = 0
KSE2 191849Z 15013KT 25/06 A2998 RMK A01 T02480064  RH  031%=      5-min Rain = 0
KSE2 191850Z 16011KT 25/07 A2998 RMK A01 T02450065  RH  032%=      5-min Rain = 0
KSE2 191851Z 16009G14KT 24/07 A2998 RMK A01 T02430072  RH  033%=      5-min Rain = 0
KSE2 191852Z 15011KT 24/08 A2998 RMK A01 T02440076  RH  034%=      5-min Rain = 0
KSE2 191853Z 15009KT 25/07 A2997 RMK A01 T02450072  RH  033%=      5-min Rain = 0
KSE2 191854Z 15012KT 24/07 A2997 RMK A01 T02440071  RH  033%=      5-min Rain = 0
KSE2 191855Z 15012KT 24/08 A2997 RMK A01 T02430075  RH  034%=      5-min Rain = 0
KSE2 191856Z 16009KT 24/08 A2997 RMK A01 T02430075  RH  034%=      5-min Rain = 0
KSE2 191857Z 16013KT 24/07 A2997 RMK A01 T02430073  RH  034%=      5-min Rain = 0
KSE2 191858Z 17010KT 24/07 A2997 RMK A01 T02430068  RH  033%=      5-min Rain = 0
KSE2 191859Z 17011KT 24/07 A2997 RMK A01 T02430069  RH  033%=      5-min Rain = 0
KSE2 191900Z 16012KT 24/07 A2997 RMK A01 T02430068  RH  033%=      5-min Rain = 0
KSE2 191901Z 17009KT 24/07 A2997 RMK A01 T02420069  RH  033%=      5-min Rain = 0
KSE2 191902Z 18013G18KT 24/07 A2997 RMK A01 T02430068  RH  033%=      5-min Rain = 0
KSE2 191903Z 17010KT 24/07 A2997 RMK A01 T02430069  RH  033%=      5-min Rain = 0
KSE2 191904Z 18006KT 24/07 A2997 RMK A01 T02440070  RH  033%=      5-min Rain = 0
KSE2 191905Z 17008G14KT 25/07 A2997 RMK A01 T02450070  RH  033%=      5-min Rain = 0
KSE2 191906Z 17010KT 25/07 A2997 RMK A01 T02480065  RH  031%=      5-min Rain = 0
KSE2 191907Z 16011KT 25/06 A2997 RMK A01 T02470064  RH  031%=      5-min Rain = 0
KSE2 191908Z 17010KT 25/06 A2997 RMK A01 T02460064  RH  031%=      5-min Rain = 0
KSE2 191909Z 17012KT 25/07 A2997 RMK A01 T02450068  RH  032%=      5-min Rain = 0
KSE2 191910Z 19011KT 25/07 A2997 RMK A01 T02460071  RH  033%=      5-min Rain = 0
KSE2 191911Z 18010KT 25/07 A2997 RMK A01 T02460072  RH  033%=      5-min Rain = 0
KSE2 191912Z 17009KT 25/07 A2997 RMK A01 T02460070  RH  032%=      5-min Rain = 0
KSE2 191913Z 17009KT 25/07 A2997 RMK A01 T02470072  RH  033%=      5-min Rain = 0
KSE2 191914Z 18010KT 25/07 A2997 RMK A01 T02490073  RH  033%=      5-min Rain = 0
KSE2 191915Z 17011KT 25/07 A2997 RMK A01 T02480070  RH  032%=      5-min Rain = 0
KSE2 191916Z 16010KT 25/07 A2997 RMK A01 T02480070  RH  032%=      5-min Rain = 0
KSE2 191917Z 17010KT 25/07 A2997 RMK A01 T02480070  RH  032%=      5-min Rain = 0
KSE2 191918Z 17010KT 25/07 A2996 RMK A01 T02470073  RH  033%=      5-min Rain = 0
KSE2 191919Z 15011KT 25/07 A2996 RMK A01 T02480072  RH  033%=      5-min Rain = 0
KSE2 191920Z 15010G15KT 25/07 A2996 RMK A01 T02470072  RH  033%=      5-min Rain = 0
KSE2 191921Z 16011G16KT 25/07 A2996 RMK A01 T02460071  RH  033%=      5-min Rain = 0
KSE2 191922Z 15012KT 25/07 A2996 RMK A01 T02460073  RH  033%=      5-min Rain = 0
KSE2 191923Z 15009KT 25/08 A2996 RMK A01 T02460075  RH  034%=      5-min Rain = 0
KSE2 191924Z 17010KT 25/07 A2996 RMK A01 T02470073  RH  033%=      5-min Rain = 0
KSE2 191925Z 16008KT 25/08 A2996 RMK A01 T02470075  RH  033%=      5-min Rain = 0
KSE2 191926Z 18011G16KT 25/08 A2996 RMK A01 T02480079  RH  034%=      5-min Rain = 0
KSE2 191927Z 16009KT 25/08 A2996 RMK A01 T02500079  RH  034%=      5-min Rain = 0
KSE2 191928Z 18007KT 25/08 A2996 RMK A01 T02510078  RH  033%=      5-min Rain = 0
KSE2 191929Z 18007KT 25/08 A2996 RMK A01 T02510078  RH  033%=      5-min Rain = 0
KSE2 191930Z 16010KT 25/07 A2996 RMK A01 T02520073  RH  032%=      5-min Rain = 0
KSE2 191931Z 18009G14KT 25/07 A2996 RMK A01 T02520073  RH  032%=      5-min Rain = 0
KSE2 191932Z 17010KT 25/07 A2996 RMK A01 T02530074  RH  032%=      5-min Rain = 0
KSE2 191933Z 18006KT 25/07 A2996 RMK A01 T02530074  RH  032%=      5-min Rain = 0
KSE2 191934Z 18008KT 26/08 A2996 RMK A01 T02550079  RH  033%=      5-min Rain = 0
KSE2 191935Z 17011G17KT 26/08 A2996 RMK A01 T02560077  RH  032%=      5-min Rain = 0
KSE2 191936Z 18011KT 25/08 A2996 RMK A01 T02540076  RH  032%=      5-min Rain = 0
KSE2 191937Z 17011G16KT 25/07 A2996 RMK A01 T02530073  RH  032%=      5-min Rain = 0
KSE2 191938Z 18009KT 25/08 A2996 RMK A01 T02520076  RH  033%=      5-min Rain = 0
KSE2 191939Z 18009KT 25/08 A2996 RMK A01 T02530077  RH  033%=      5-min Rain = 0
KSE2 191940Z 20011KT 25/08 A2996 RMK A01 T02540077  RH  033%=      5-min Rain = 0
KSE2 191941Z 19008KT 25/08 A2996 RMK A01 T02510075  RH  032%=      5-min Rain = 0
KSE2 191942Z 16014KT 25/07 A2996 RMK A01 T02500073  RH  032%=      5-min Rain = 0
KSE2 191943Z 17009KT 25/07 A2996 RMK A01 T02490072  RH  032%=      5-min Rain = 0
KSE2 191944Z 16009KT 25/07 A2996 RMK A01 T02500074  RH  032%=      5-min Rain = 0
KSE2 191945Z 16010KT 25/07 A2995 RMK A01 T02520074  RH  032%=      5-min Rain = 0
KSE2 191946Z 16012KT 25/07 A2995 RMK A01 T02520072  RH  032%=      5-min Rain = 0
KSE2 191947Z 17013KT 25/07 A2995 RMK A01 T02480069  RH  032%=      5-min Rain = 0
KSE2 191948Z 18008KT 25/07 A2995 RMK A01 T02450071  RH  033%=      5-min Rain = 0
KSE2 191949Z 18008KT 24/07 A2995 RMK A01 T02440072  RH  033%=      5-min Rain = 0
KSE2 191950Z 18007KT 24/07 A2995 RMK A01 T02440071  RH  033%=      5-min Rain = 0
KSE2 191951Z 18011G18KT 25/07 A2995 RMK A01 T02450071  RH  033%=      5-min Rain = 0
KSE2 191952Z 17014KT 24/07 A2995 RMK A01 T02440067  RH  032%=      5-min Rain = 0
KSE2 191953Z 17012KT 24/07 A2995 RMK A01 T02420067  RH  033%=      5-min Rain = 0
KSE2 191954Z 17010KT 24/07 A2995 RMK A01 T02410066  RH  033%=      5-min Rain = 0
KSE2 191955Z 18009KT 24/07 A2995 RMK A01 T02400069  RH  033%=      5-min Rain = 0
KSE2 191956Z 17009G15KT 24/07 A2995 RMK A01 T02410072  RH  034%=      5-min Rain = 0
KSE2 191957Z 18009G14KT 24/07 A2995 RMK A01 T02430073  RH  034%=      5-min Rain = 0
KSE2 191958Z 19012KT 24/07 A2995 RMK A01 T02430073  RH  034%=      5-min Rain = 0
KSE2 191959Z 18013KT 24/07 A2995 RMK A01 T02420073  RH  034%=      5-min Rain = 0
KSE2 192000Z 18012KT 24/07 A2995 RMK A01 T02410071  RH  034%=      5-min Rain = 0
KSE2 192001Z 18012KT 24/07 A2995 RMK A01 T02400071  RH  034%=      5-min Rain = 0
KSE2 192002Z 19009KT 24/07 A2995 RMK A01 T02390073  RH  034%=      5-min Rain = 0
KSE2 192003Z 19009KT 24/07 A2995 RMK A01 T02390074  RH  035%=      5-min Rain = 0
KSE2 192004Z 20011KT 24/07 A2995 RMK A01 T02400072  RH  034%=      5-min Rain = 0
KSE2 192005Z 19010KT 24/07 A2995 RMK A01 T02400070  RH  034%=      5-min Rain = 0
KSE2 192006Z 16008KT 24/07 A2995 RMK A01 T02400074  RH  034%=      5-min Rain = 0
KSE2 192007Z 16010KT 24/08 A2994 RMK A01 T02410076  RH  035%=      5-min Rain = 0
KSE2 192008Z 19012KT 24/08 A2995 RMK A01 T02410076  RH  035%=      5-min Rain = 0
KSE2 192009Z 18007KT 24/08 A2994 RMK A01 T02400078  RH  035%=      5-min Rain = 0
KSE2 192010Z 17010KT 24/08 A2994 RMK A01 T02410078  RH  035%=      5-min Rain = 0
KSE2 192011Z 19009KT 24/08 A2994 RMK A01 T02410077  RH  035%=      5-min Rain = 0
KSE2 192012Z 17009KT 24/08 A2994 RMK A01 T02400078  RH  035%=      5-min Rain = 0
KSE2 192013Z 19010KT 24/08 A2994 RMK A01 T02410078  RH  035%=      5-min Rain = 0
KSE2 192014Z 19009KT 24/08 A2994 RMK A01 T02430078  RH  035%=      5-min Rain = 0
KSE2 192015Z 18011KT 24/08 A2994 RMK A01 T02440077  RH  034%=      5-min Rain = 0
KSE2 192016Z 18009G16KT 24/08 A2994 RMK A01 T02440076  RH  034%=      5-min Rain = 0
KSE2 192017Z 20009G15KT 25/08 A2994 RMK A01 T02450079  RH  034%=      5-min Rain = 0
KSE2 192018Z 20010KT 25/08 A2994 RMK A01 T02470076  RH  033%=      5-min Rain = 0
KSE2 192019Z 19009G14KT 25/08 A2994 RMK A01 T02480076  RH  033%=      5-min Rain = 0
KSE2 192020Z 20011KT 25/07 A2994 RMK A01 T02500073  RH  032%=      5-min Rain = 0
KSE2 192021Z 20011G16KT 25/07 A2994 RMK A01 T02500074  RH  033%=      5-min Rain = 0
KSE2 192022Z 19012KT 25/07 A2994 RMK A01 T02490074  RH  033%=      5-min Rain = 0
KSE2 192023Z 18012KT 25/08 A2994 RMK A01 T02480076  RH  033%=      5-min Rain = 0
KSE2 192024Z 19007KT 25/08 A2994 RMK A01 T02460076  RH  034%=      5-min Rain = 0
KSE2 192025Z 16007KT 25/08 A2994 RMK A01 T02450077  RH  034%=      5-min Rain = 0
KSE2 192026Z 18009KT 25/08 A2994 RMK A01 T02470080  RH  034%=      5-min Rain = 0
KSE2 192027Z 18013KT 25/08 A2994 RMK A01 T02500078  RH  033%=      5-min Rain = 0
KSE2 192028Z 19012KT 25/08 A2994 RMK A01 T02500076  RH  033%=      5-min Rain = 0
KSE2 192029Z 19012KT 25/08 A2994 RMK A01 T02470076  RH  033%=      5-min Rain = 0
KSE2 192030Z 18009KT 25/08 A2994 RMK A01 T02460078  RH  034%=      5-min Rain = 0
KSE2 192031Z 20009KT 25/08 A2994 RMK A01 T02450078  RH  034%=      5-min Rain = 0
KSE2 192032Z 19011KT 25/08 A2994 RMK A01 T02470078  RH  034%=      5-min Rain = 0
KSE2 192033Z 19011KT 25/08 A2994 RMK A01 T02480078  RH  034%=      5-min Rain = 0
KSE2 192034Z 19008G15KT 25/08 A2994 RMK A01 T02470078  RH  034%=      5-min Rain = 0
KSE2 192035Z 19011KT 25/08 A2994 RMK A01 T02470079  RH  034%=      5-min Rain = 0
KSE2 192036Z 19013KT 25/08 A2994 RMK A01 T02480077  RH  034%=      5-min Rain = 0
KSE2 192037Z 19013KT 25/07 A2994 RMK A01 T02470073  RH  033%=      5-min Rain = 0
KSE2 192038Z 18009G15KT 25/07 A2994 RMK A01 T02460073  RH  033%=      5-min Rain = 0
KSE2 192039Z 20012KT 25/07 A2994 RMK A01 T02460073  RH  033%=      5-min Rain = 0
KSE2 192040Z 16007KT 25/08 A2994 RMK A01 T02470075  RH  033%=      5-min Rain = 0
KSE2 192041Z 16009KT 25/08 A2994 RMK A01 T02500079  RH  034%=      5-min Rain = 0
KSE2 192042Z 18009KT 25/08 A2994 RMK A01 T02510078  RH  033%=      5-min Rain = 0
KSE2 192043Z 16010KT 25/08 A2994 RMK A01 T02510078  RH  033%=      5-min Rain = 0
KSE2 192044Z 15011KT 25/08 A2994 RMK A01 T02490075  RH  033%=      5-min Rain = 0
KSE2 192045Z 16012G18KT 25/07 A2994 RMK A01 T02470071  RH  032%=      5-min Rain = 0
KSE2 192046Z 17010G15KT 25/07 A2994 RMK A01 T02450071  RH  033%=      5-min Rain = 0
KSE2 192047Z 17012G17KT 25/07 A2994 RMK A01 T02450072  RH  033%=      5-min Rain = 0
KSE2 192048Z 18009KT 25/07 A2994 RMK A01 T02450072  RH  033%=      5-min Rain = 0
KSE2 192049Z 18008KT 25/07 A2994 RMK A01 T02450072  RH  033%=      5-min Rain = 0
KSE2 192050Z 17011KT 25/07 A2994 RMK A01 T02460074  RH  033%=      5-min Rain = 0
KSE2 192051Z 16013KT 25/07 A2994 RMK A01 T02460073  RH  033%=      5-min Rain = 0
KSE2 192052Z 17011KT 25/07 A2994 RMK A01 T02450074  RH  034%=      5-min Rain = 0
KSE2 192053Z 18012KT 24/08 A2994 RMK A01 T02440075  RH  034%=      5-min Rain = 0
KSE2 192054Z 17010KT 24/07 A2994 RMK A01 T02440074  RH  034%=      5-min Rain = 0
KSE2 192055Z 16010KT 25/08 A2993 RMK A01 T02450075  RH  034%=      5-min Rain = 0
KSE2 192056Z 16011KT 25/08 A2993 RMK A01 T02460075  RH  034%=      5-min Rain = 0
KSE2 192057Z 16012KT 25/08 A2993 RMK A01 T02460075  RH  033%=      5-min Rain = 0
KSE2 192058Z 15013KT 24/07 A2993 RMK A01 T02440074  RH  034%=      5-min Rain = 0
KSE2 192059Z 16010KT 24/07 A2993 RMK A01 T02430074  RH  034%=      5-min Rain = 0
KSE2 192100Z 18012KT 24/07 A2993 RMK A01 T02430074  RH  034%=      5-min Rain = 0
KSE2 192101Z 17009KT 24/07 A2993 RMK A01 T02440074  RH  034%=      5-min Rain = 0
KSE2 192102Z 18007KT 25/08 A2993 RMK A01 T02450076  RH  034%=      5-min Rain = 0
KSE2 192103Z 19009KT 25/08 A2993 RMK A01 T02470078  RH  034%=      5-min Rain = 0
KSE2 192104Z 15013KT 25/08 A2993 RMK A01 T02470079  RH  034%=      5-min Rain = 0
KSE2 192105Z 15013KT 25/08 A2993 RMK A01 T02450079  RH  035%=      5-min Rain = 0
KSE2 192106Z 15010KT 25/08 A2993 RMK A01 T02450079  RH  035%=      5-min Rain = 0
KSE2 192107Z 14010KT 25/08 A2993 RMK A01 T02450079  RH  035%=      5-min Rain = 0
KSE2 192108Z 15009KT 24/08 A2993 RMK A01 T02440080  RH  035%=      5-min Rain = 0
KSE2 192109Z 16008G14KT 24/08 A2993 RMK A01 T02440080  RH  035%=      5-min Rain = 0
KSE2 192110Z 16010KT 25/08 A2993 RMK A01 T02450077  RH  034%=      5-min Rain = 0
KSE2 192111Z 16012G17KT 25/07 A2993 RMK A01 T02460072  RH  033%=      5-min Rain = 0
KSE2 192112Z 17011G17KT 24/07 A2993 RMK A01 T02440071  RH  033%=      5-min Rain = 0
KSE2 192113Z 15011KT 24/07 A2993 RMK A01 T02430071  RH  033%=      5-min Rain = 0
KSE2 192114Z 15008G13KT 24/07 A2993 RMK A01 T02430073  RH  034%=      5-min Rain = 0
KSE2 192115Z 17008KT 24/07 A2993 RMK A01 T02440072  RH  033%=      5-min Rain = 0
KSE2 192116Z 19010G16KT 25/07 A2993 RMK A01 T02460070  RH  032%=      5-min Rain = 0
KSE2 192117Z 20012KT 25/06 A2993 RMK A01 T02470062  RH  030%=      5-min Rain = 0
KSE2 192118Z 19011G17KT 25/06 A2993 RMK A01 T02460059  RH  030%=      5-min Rain = 0
KSE2 192119Z 17008KT 25/06 A2993 RMK A01 T02460060  RH  030%=      5-min Rain = 0
KSE2 192120Z 19010G15KT 25/06 A2993 RMK A01 T02450064  RH  031%=      5-min Rain = 0
KSE2 192121Z 19012KT 25/07 A2993 RMK A01 T02450066  RH  032%=      5-min Rain = 0
KSE2 192122Z 18013KT 24/07 A2993 RMK A01 T02440066  RH  032%=      5-min Rain = 0
KSE2 192123Z 19012KT 24/07 A2993 RMK A01 T02430067  RH  032%=      5-min Rain = 0
KSE2 192124Z 20011KT 24/07 A2993 RMK A01 T02420069  RH  033%=      5-min Rain = 0
KSE2 192125Z 20011G16KT 24/07 A2993 RMK A01 T02420069  RH  033%=      5-min Rain = 0
KSE2 192126Z 19010G15KT 24/07 A2993 RMK A01 T02420072  RH  034%=      5-min Rain = 0
KSE2 192127Z 19012KT 24/07 A2993 RMK A01 T02430072  RH  033%=      5-min Rain = 0
KSE2 192128Z 19010KT 24/07 A2993 RMK A01 T02430072  RH  033%=      5-min Rain = 0
KSE2 192129Z 19010KT 24/07 A2993 RMK A01 T02420069  RH  033%=      5-min Rain = 0
KSE2 192130Z 19008KT 24/07 A2993 RMK A01 T02430070  RH  033%=      5-min Rain = 0
KSE2 192131Z 18011KT 24/07 A2993 RMK A01 T02440070  RH  033%=      5-min Rain = 0
KSE2 192132Z 19009KT 24/07 A2993 RMK A01 T02440070  RH  033%=      5-min Rain = 0
KSE2 192133Z 19012KT 24/07 A2993 RMK A01 T02440072  RH  033%=      5-min Rain = 0
KSE2 192134Z 19012KT 25/07 A2993 RMK A01 T02450071  RH  033%=      5-min Rain = 0
KSE2 192135Z 18011KT 24/07 A2993 RMK A01 T02440071  RH  033%=      5-min Rain = 0
KSE2 192136Z 18008KT 24/07 A2993 RMK A01 T02430072  RH  034%=      5-min Rain = 0
KSE2 192137Z 17010KT 24/07 A2993 RMK A01 T02430074  RH  034%=      5-min Rain = 0
KSE2 192138Z 16009KT 24/08 A2993 RMK A01 T02440076  RH  034%=      5-min Rain = 0
KSE2 192139Z 17011G16KT 24/08 A2993 RMK A01 T02440077  RH  034%=      5-min Rain = 0
KSE2 192140Z 16011KT 24/08 A2993 RMK A01 T02440076  RH  034%=      5-min Rain = 0
KSE2 192141Z 17007KT 24/08 A2993 RMK A01 T02420076  RH  034%=      5-min Rain = 0
KSE2 192142Z 18010KT 24/08 A2993 RMK A01 T02430076  RH  034%=      5-min Rain = 0
KSE2 192143Z 19010KT 24/07 A2993 RMK A01 T02430074  RH  034%=      5-min Rain = 0
KSE2 192144Z 16007G14KT 24/08 A2993 RMK A01 T02430075  RH  034%=      5-min Rain = 0
KSE2 192145Z 16011KT 24/08 A2993 RMK A01 T02440075  RH  034%=      5-min Rain = 0
KSE2 192146Z 17012KT 24/07 A2993 RMK A01 T02430074  RH  034%=      5-min Rain = 0
KSE2 192147Z 18012KT 24/07 A2993 RMK A01 T02420074  RH  034%=      5-min Rain = 0
KSE2 192148Z 18010KT 24/08 A2993 RMK A01 T02420075  RH  034%=      5-min Rain = 0
KSE2 192149Z 18009KT 24/08 A2993 RMK A01 T02420076  RH  035%=      5-min Rain = 0
KSE2 192150Z 16008G14KT 24/08 A2993 RMK A01 T02430077  RH  035%=      5-min Rain = 0
KSE2 192151Z 16012KT 24/08 A2993 RMK A01 T02430077  RH  035%=      5-min Rain = 0
KSE2 192152Z 17011KT 24/08 A2993 RMK A01 T02420076  RH  034%=      5-min Rain = 0
KSE2 192153Z 17009KT 24/08 A2993 RMK A01 T02410075  RH  035%=      5-min Rain = 0
KSE2 192154Z 17010G15KT 24/08 A2993 RMK A01 T02410077  RH  035%=      5-min Rain = 0
KSE2 192155Z 18010KT 24/08 A2993 RMK A01 T02420076  RH  035%=      5-min Rain = 0
KSE2 192156Z 18008KT 24/08 A2993 RMK A01 T02400075  RH  035%=      5-min Rain = 0
KSE2 192157Z 20008KT 24/08 A2993 RMK A01 T02400078  RH  035%=      5-min Rain = 0
KSE2 192158Z 18012KT 24/08 A2993 RMK A01 T02410078  RH  035%=      5-min Rain = 0
KSE2 192159Z 18012KT 24/08 A2993 RMK A01 T02410079  RH  035%=      5-min Rain = 0
KSE2 192200Z 17012KT 24/08 A2993 RMK A01 T02400079  RH  036%=      5-min Rain = 0
KSE2 192201Z 18012KT 24/08 A2993 RMK A01 T02400079  RH  036%=      5-min Rain = 0
KSE2 192202Z 18012KT 24/08 A2993 RMK A01 T02390078  RH  036%=      5-min Rain = 0
KSE2 192203Z 18010KT 24/08 A2993 RMK A01 T02390078  RH  036%=      5-min Rain = 0
KSE2 192204Z 18011KT 24/08 A2993 RMK A01 T02390078  RH  036%=      5-min Rain = 0
KSE2 192205Z 19011KT 24/08 A2993 RMK A01 T02390077  RH  035%=      5-min Rain = 0
KSE2 192206Z 20010KT 24/08 A2993 RMK A01 T02390078  RH  035%=      5-min Rain = 0
KSE2 192207Z 19009KT 24/08 A2993 RMK A01 T02400078  RH  036%=      5-min Rain = 0
KSE2 192208Z 19012KT 24/08 A2993 RMK A01 T02400079  RH  036%=      5-min Rain = 0
KSE2 192209Z 16011KT 24/08 A2993 RMK A01 T02400082  RH  036%=      5-min Rain = 0
KSE2 192210Z 16009KT 24/08 A2993 RMK A01 T02390083  RH  037%=      5-min Rain = 0
KSE2 192211Z 19008KT 24/08 A2993 RMK A01 T02380083  RH  037%=      5-min Rain = 0
KSE2 192212Z 18009KT 24/08 A2993 RMK A01 T02380084  RH  038%=      5-min Rain = 0
KSE2 192213Z 19010KT 24/09 A2993 RMK A01 T02380085  RH  038%=      5-min Rain = 0
KSE2 192214Z 19010KT 24/09 A2993 RMK A01 T02380085  RH  038%=      5-min Rain = 0
KSE2 192215Z 16010KT 24/09 A2993 RMK A01 T02380087  RH  038%=      5-min Rain = 0
KSE2 192216Z 18010G15KT 24/09 A2993 RMK A01 T02380086  RH  038%=      5-min Rain = 0
KSE2 192217Z 16009KT 24/09 A2993 RMK A01 T02370086  RH  038%=      5-min Rain = 0
KSE2 192218Z 17010KT 24/09 A2993 RMK A01 T02360086  RH  038%=      5-min Rain = 0
KSE2 192219Z 17010KT 24/09 A2993 RMK A01 T02360086  RH  038%=      5-min Rain = 0
KSE2 192220Z 18011KT 24/09 A2993 RMK A01 T02350086  RH  039%=      5-min Rain = 0
KSE2 192221Z 16008KT 23/09 A2993 RMK A01 T02340087  RH  039%=      5-min Rain = 0
KSE2 192222Z 17009KT 24/09 A2993 RMK A01 T02350088  RH  039%=      5-min Rain = 0
KSE2 192223Z 18008KT 24/09 A2993 RMK A01 T02350088  RH  039%=      5-min Rain = 0
KSE2 192224Z 17008KT 24/09 A2993 RMK A01 T02360088  RH  039%=      5-min Rain = 0
KSE2 192225Z 17009KT 24/09 A2993 RMK A01 T02360089  RH  039%=      5-min Rain = 0
KSE2 192226Z 17012KT 24/09 A2993 RMK A01 T02360088  RH  039%=      5-min Rain = 0
KSE2 192227Z 14010KT 23/09 A2993 RMK A01 T02340088  RH  039%=      5-min Rain = 0
KSE2 192228Z 15010KT 23/09 A2993 RMK A01 T02330088  RH  040%=      5-min Rain = 0
KSE2 192229Z 16008KT 23/09 A2993 RMK A01 T02320089  RH  040%=      5-min Rain = 0
KSE2 192230Z 17007KT 23/09 A2993 RMK A01 T02320090  RH  040%=      5-min Rain = 0
KSE2 192231Z 17009KT 23/09 A2993 RMK A01 T02320090  RH  040%=      5-min Rain = 0
KSE2 192232Z 18005KT 23/09 A2993 RMK A01 T02330090  RH  040%=      5-min Rain = 0
KSE2 192233Z 17007KT 23/09 A2993 RMK A01 T02330091  RH  040%=      5-min Rain = 0
KSE2 192234Z 17010KT 23/09 A2993 RMK A01 T02340091  RH  040%=      5-min Rain = 0
KSE2 192235Z 17010KT 23/09 A2993 RMK A01 T02340090  RH  040%=      5-min Rain = 0
KSE2 192236Z 16006KT 23/09 A2993 RMK A01 T02330090  RH  040%=      5-min Rain = 0
KSE2 192237Z 17009KT 23/09 A2993 RMK A01 T02330091  RH  040%=      5-min Rain = 0
KSE2 192238Z 17008KT 23/09 A2993 RMK A01 T02330091  RH  040%=      5-min Rain = 0
KSE2 192239Z 17009KT 23/09 A2993 RMK A01 T02320092  RH  041%=      5-min Rain = 0
KSE2 192240Z 16007KT 23/09 A2993 RMK A01 T02320092  RH  041%=      5-min Rain = 0
KSE2 192241Z 16006KT 23/09 A2993 RMK A01 T02320093  RH  041%=      5-min Rain = 0
KSE2 192242Z 17006KT 23/09 A2993 RMK A01 T02320094  RH  042%=      5-min Rain = 0
KSE2 192243Z 16010KT 23/09 A2993 RMK A01 T02320094  RH  041%=      5-min Rain = 0
KSE2 192244Z 17007KT 23/09 A2993 RMK A01 T02320094  RH  042%=      5-min Rain = 0
KSE2 192245Z 16006KT 23/10 A2993 RMK A01 T02310095  RH  042%=      5-min Rain = 0
KSE2 192246Z 17007KT 23/10 A2993 RMK A01 T02310095  RH  042%=      5-min Rain = 0
KSE2 192247Z 17005KT 23/10 A2993 RMK A01 T02310096  RH  042%=      5-min Rain = 0
KSE2 192248Z 15005KT 23/10 A2993 RMK A01 T02300096  RH  043%=      5-min Rain = 0
KSE2 192249Z 16006KT 23/10 A2993 RMK A01 T02300096  RH  043%=      5-min Rain = 0
KSE2 192250Z 15008KT 23/10 A2993 RMK A01 T02300095  RH  042%=      5-min Rain = 0
KSE2 192251Z 15011KT 23/09 A2993 RMK A01 T02280093  RH  042%=      5-min Rain = 0
KSE2 192252Z 15010KT 23/09 A2993 RMK A01 T02270092  RH  042%=      5-min Rain = 0
KSE2 192253Z 15010KT 23/09 A2993 RMK A01 T02260092  RH  042%=      5-min Rain = 0
KSE2 192254Z 16009KT 23/09 A2993 RMK A01 T02260092  RH  043%=      5-min Rain = 0
KSE2 192255Z 17008KT 23/09 A2993 RMK A01 T02250093  RH  043%=      5-min Rain = 0
KSE2 192256Z 16008KT 23/09 A2993 RMK A01 T02250093  RH  043%=      5-min Rain = 0
KSE2 192257Z 15008KT 22/09 A2993 RMK A01 T02240093  RH  043%=      5-min Rain = 0
KSE2 192258Z 16008KT 22/09 A2993 RMK A01 T02240092  RH  043%=      5-min Rain = 0
KSE2 192259Z 16006KT 22/09 A2993 RMK A01 T02230092  RH  043%=      5-min Rain = 0
KSE2 192300Z 16008KT 22/09 A2993 RMK A01 T02220093  RH  044%=      5-min Rain = 0
KSE2 192301Z 17006KT 22/09 A2993 RMK A01 T02210092  RH  044%=      5-min Rain = 0
KSE2 192302Z 16008KT 22/09 A2993 RMK A01 T02200092  RH  044%=      5-min Rain = 0
KSE2 192303Z 17009KT 22/09 A2993 RMK A01 T02200092  RH  044%=      5-min Rain = 0
KSE2 192304Z 17008KT 22/09 A2993 RMK A01 T02180092  RH  044%=      5-min Rain = 0
KSE2 192305Z 16010KT 22/09 A2993 RMK A01 T02180092  RH  045%=      5-min Rain = 0
KSE2 192306Z 15010KT 22/09 A2993 RMK A01 T02180092  RH  045%=      5-min Rain = 0
KSE2 192307Z 16006KT 22/09 A2993 RMK A01 T02180093  RH  045%=      5-min Rain = 0
KSE2 192308Z 16008KT 22/09 A2993 RMK A01 T02170093  RH  045%=      5-min Rain = 0
KSE2 192309Z 16008KT 22/09 A2993 RMK A01 T02160092  RH  045%=      5-min Rain = 0
KSE2 192310Z 16006KT 22/09 A2993 RMK A01 T02160093  RH  045%=      5-min Rain = 0
KSE2 192311Z 16007KT 21/09 A2993 RMK A01 T02140093  RH  046%=      5-min Rain = 0
KSE2 192312Z 16008KT 21/09 A2993 RMK A01 T02140092  RH  046%=      5-min Rain = 0
KSE2 192313Z 16006KT 21/09 A2993 RMK A01 T02140093  RH  046%=      5-min Rain = 0
KSE2 192314Z 16007KT 21/09 A2993 RMK A01 T02130093  RH  046%=      5-min Rain = 0
KSE2 192315Z 16007KT 21/09 A2993 RMK A01 T02130093  RH  046%=      5-min Rain = 0
KSE2 192316Z 16006KT 21/09 A2993 RMK A01 T02120092  RH  046%=      5-min Rain = 0
KSE2 192317Z 16007KT 21/09 A2993 RMK A01 T02110092  RH  046%=      5-min Rain = 0
KSE2 192318Z 15008KT 21/09 A2993 RMK A01 T02110092  RH  046%=      5-min Rain = 0
KSE2 192319Z 16007KT 21/09 A2993 RMK A01 T02110092  RH  046%=      5-min Rain = 0
KSE2 192320Z 16007KT 21/09 A2993 RMK A01 T02110092  RH  046%=      5-min Rain = 0
KSE2 192321Z 16008KT 21/09 A2993 RMK A01 T02100092  RH  047%=      5-min Rain = 0
KSE2 192322Z 16008KT 21/09 A2993 RMK A01 T02100091  RH  046%=      5-min Rain = 0
KSE2 192323Z 15007KT 21/09 A2993 RMK A01 T02100091  RH  046%=      5-min Rain = 0
KSE2 192324Z 16008KT 21/09 A2993 RMK A01 T02100091  RH  046%=      5-min Rain = 0
KSE2 192325Z 16006KT 21/09 A2993 RMK A01 T02100091  RH  047%=      5-min Rain = 0
KSE2 192326Z 15008KT 21/09 A2993 RMK A01 T02080091  RH  047%=      5-min Rain = 0
KSE2 192327Z 16007KT 21/09 A2993 RMK A01 T02090091  RH  047%=      5-min Rain = 0
KSE2 192328Z 16008KT 21/09 A2993 RMK A01 T02080091  RH  047%=      5-min Rain = 0
KSE2 192329Z 15008KT 21/09 A2993 RMK A01 T02070090  RH  047%=      5-min Rain = 0
KSE2 192330Z 15007KT 21/09 A2993 RMK A01 T02070090  RH  047%=      5-min Rain = 0
KSE2 192331Z 16008KT 21/09 A2993 RMK A01 T02070090  RH  047%=      5-min Rain = 0
KSE2 192332Z 15007KT 21/09 A2993 RMK A01 T02060090  RH  047%=      5-min Rain = 0
KSE2 192333Z 15007KT 21/09 A2993 RMK A01 T02060090  RH  047%=      5-min Rain = 0
KSE2 192334Z 16008KT 21/09 A2993 RMK A01 T02050089  RH  047%=      5-min Rain = 0
KSE2 192335Z 15008KT 21/09 A2993 RMK A01 T02050089  RH  047%=      5-min Rain = 0
KSE2 192336Z 16008KT 21/09 A2993 RMK A01 T02050089  RH  047%=      5-min Rain = 0
KSE2 192337Z 15008KT 20/09 A2993 RMK A01 T02040088  RH  047%=      5-min Rain = 0
KSE2 192338Z 15007KT 20/09 A2993 RMK A01 T02040088  RH  047%=      5-min Rain = 0
KSE2 192339Z 15008KT 20/09 A2993 RMK A01 T02030088  RH  047%=      5-min Rain = 0
KSE2 192340Z 15007KT 20/09 A2993 RMK A01 T02030088  RH  047%=      5-min Rain = 0
KSE2 192341Z 16007KT 20/09 A2993 RMK A01 T02020088  RH  048%=      5-min Rain = 0
KSE2 192342Z 15007KT 20/09 A2993 RMK A01 T02010087  RH  048%=      5-min Rain = 0
KSE2 192343Z 15007KT 20/09 A2993 RMK A01 T02010087  RH  048%=      5-min Rain = 0
KSE2 192344Z 16006KT 20/09 A2993 RMK A01 T02000087  RH  048%=      5-min Rain = 0
KSE2 192345Z 16006KT 20/09 A2993 RMK A01 T01990087  RH  048%=      5-min Rain = 0
KSE2 192346Z 15006KT 20/09 A2993 RMK A01 T01980086  RH  048%=      5-min Rain = 0
KSE2 192347Z 15006KT 20/09 A2993 RMK A01 T01980086  RH  049%=      5-min Rain = 0
KSE2 192348Z 15006KT 20/09 A2993 RMK A01 T01970086  RH  049%=      5-min Rain = 0
KSE2 192349Z 15007KT 20/09 A2993 RMK A01 T01970086  RH  049%=      5-min Rain = 0
KSE2 192350Z 15007KT 20/09 A2993 RMK A01 T01960086  RH  049%=      5-min Rain = 0
KSE2 192351Z 16007KT 20/09 A2993 RMK A01 T01960086  RH  049%=      5-min Rain = 0
KSE2 192352Z 15008KT 20/09 A2993 RMK A01 T01960086  RH  049%=      5-min Rain = 0
KSE2 192353Z 16007KT 20/09 A2993 RMK A01 T01960085  RH  049%=      5-min Rain = 0
KSE2 192354Z 15008KT 20/09 A2993 RMK A01 T01960086  RH  049%=      5-min Rain = 0
KSE2 192355Z 15008KT 20/09 A2993 RMK A01 T01950085  RH  049%=      5-min Rain = 0
KSE2 192356Z 15008KT 20/09 A2993 RMK A01 T01950086  RH  049%=      5-min Rain = 0
KSE2 192357Z 15008KT 20/09 A2993 RMK A01 T01950085  RH  049%=      5-min Rain = 0
KSE2 192358Z 15008KT 20/09 A2993 RMK A01 T01950086  RH  049%=      5-min Rain = 0
KSE2 192359Z 15008KT 19/09 A2993 RMK A01 T01940086  RH  049%=      5-min Rain = 0
KSE2 200000Z 15008KT 19/09 A2993 RMK A01 T01940086  RH  050%=      5-min Rain = 0
KSE2 200001Z 15008KT 19/09 A2993 RMK A01 T01930086  RH  050%=      5-min Rain = 0
KSE2 200002Z 15008KT 19/09 A2993 RMK A01 T01930086  RH  050%=      5-min Rain = 0
KSE2 200003Z 15009KT 19/09 A2993 RMK A01 T01930087  RH  050%=      5-min Rain = 0
KSE2 200004Z 15008KT 19/09 A2993 RMK A01 T01930087  RH  050%=      5-min Rain = 0
KSE2 200005Z 15008KT 19/09 A2993 RMK A01 T01920087  RH  051%=      5-min Rain = 0
KSE2 200006Z 15008KT 19/09 A2993 RMK A01 T01910087  RH  051%=      5-min Rain = 0
KSE2 200007Z 14008KT 19/09 A2993 RMK A01 T01910087  RH  051%=      5-min Rain = 0
KSE2 200008Z 15007KT 19/09 A2993 RMK A01 T01900087  RH  051%=      5-min Rain = 0
KSE2 200009Z 15009KT 19/09 A2993 RMK A01 T01900087  RH  051%=      5-min Rain = 0
KSE2 200010Z 15008KT 19/09 A2993 RMK A01 T01900088  RH  051%=      5-min Rain = 0
KSE2 200011Z 15008KT 19/09 A2993 RMK A01 T01900087  RH  051%=      5-min Rain = 0
KSE2 200012Z 15008KT 19/09 A2993 RMK A01 T01900088  RH  051%=      5-min Rain = 0
KSE2 200013Z 15008KT 19/09 A2993 RMK A01 T01900088  RH  052%=      5-min Rain = 0
KSE2 200014Z 15008KT 19/09 A2993 RMK A01 T01900088  RH  052%=      5-min Rain = 0
KSE2 200015Z 15007KT 19/09 A2993 RMK A01 T01900088  RH  052%=      5-min Rain = 0
KSE2 200016Z 16008KT 19/09 A2993 RMK A01 T01890088  RH  052%=      5-min Rain = 0
KSE2 200017Z 15008KT 19/09 A2993 RMK A01 T01890088  RH  052%=      5-min Rain = 0
KSE2 200018Z 15007KT 19/09 A2993 RMK A01 T01890089  RH  052%=      5-min Rain = 0
KSE2 200019Z 15008KT 19/09 A2993 RMK A01 T01890089  RH  052%=      5-min Rain = 0
KSE2 200020Z 15008KT 19/09 A2994 RMK A01 T01890089  RH  052%=      5-min Rain = 0
KSE2 200021Z 16006KT 19/09 A2994 RMK A01 T01880089  RH  052%=      5-min Rain = 0
KSE2 200022Z 15006KT 19/09 A2994 RMK A01 T01880089  RH  053%=      5-min Rain = 0
KSE2 200023Z 15007KT 19/09 A2994 RMK A01 T01880090  RH  053%=      5-min Rain = 0
KSE2 200024Z 15007KT 19/09 A2993 RMK A01 T01880090  RH  053%=      5-min Rain = 0
KSE2 200025Z 15006KT 19/09 A2993 RMK A01 T01870090  RH  053%=      5-min Rain = 0
KSE2 200026Z 16007KT 19/09 A2994 RMK A01 T01860090  RH  053%=      5-min Rain = 0
KSE2 200027Z 15007KT 19/09 A2994 RMK A01 T01860090  RH  054%=      5-min Rain = 0
KSE2 200028Z 15007KT 19/09 A2994 RMK A01 T01860091  RH  054%=      5-min Rain = 0
KSE2 200029Z 15006KT 19/09 A2994 RMK A01 T01860091  RH  054%=      5-min Rain = 0
KSE2 200030Z 15006KT 19/09 A2994 RMK A01 T01860091  RH  054%=      5-min Rain = 0
KSE2 200031Z 15006KT 19/09 A2994 RMK A01 T01850091  RH  054%=      5-min Rain = 0
KSE2 200032Z 15006KT 18/09 A2994 RMK A01 T01840091  RH  054%=      5-min Rain = 0
KSE2 200033Z 15006KT 18/09 A2994 RMK A01 T01840091  RH  055%=      5-min Rain = 0
KSE2 200034Z 15006KT 18/09 A2994 RMK A01 T01840091  RH  055%=      5-min Rain = 0
KSE2 200035Z 16006KT 18/09 A2994 RMK A01 T01830091  RH  055%=      5-min Rain = 0
KSE2 200036Z 16006KT 18/09 A2994 RMK A01 T01830091  RH  055%=      5-min Rain = 0
KSE2 200037Z 16006KT 18/09 A2994 RMK A01 T01820091  RH  055%=      5-min Rain = 0
KSE2 200038Z 16006KT 18/09 A2994 RMK A01 T01820091  RH  055%=      5-min Rain = 0
KSE2 200039Z 16006KT 18/09 A2994 RMK A01 T01820091  RH  056%=      5-min Rain = 0
KSE2 200040Z 16006KT 18/09 A2994 RMK A01 T01820091  RH  056%=      5-min Rain = 0
KSE2 200041Z 16007KT 18/09 A2994 RMK A01 T01820092  RH  056%=      5-min Rain = 0
KSE2 200042Z 16006KT 18/09 A2994 RMK A01 T01810092  RH  056%=      5-min Rain = 0
KSE2 200043Z 16006KT 18/09 A2994 RMK A01 T01810092  RH  056%=      5-min Rain = 0
KSE2 200044Z 16006KT 18/09 A2994 RMK A01 T01810092  RH  056%=      5-min Rain = 0
KSE2 200045Z 15007KT 18/09 A2995 RMK A01 T01810093  RH  056%=      5-min Rain = 0
KSE2 200046Z 15006KT 18/09 A2994 RMK A01 T01800093  RH  057%=      5-min Rain = 0
KSE2 200047Z 15007KT 18/09 A2994 RMK A01 T01800093  RH  057%=      5-min Rain = 0
KSE2 200048Z 15006KT 18/09 A2994 RMK A01 T01800093  RH  057%=      5-min Rain = 0
KSE2 200049Z 15006KT 18/09 A2994 RMK A01 T01800093  RH  057%=      5-min Rain = 0
KSE2 200050Z 15007KT 18/09 A2994 RMK A01 T01790093  RH  057%=      5-min Rain = 0
KSE2 200051Z 15006KT 18/09 A2994 RMK A01 T01780093  RH  057%=      5-min Rain = 0
KSE2 200052Z 15007KT 18/09 A2994 RMK A01 T01770093  RH  058%=      5-min Rain = 0
KSE2 200053Z 15007KT 18/09 A2994 RMK A01 T01760092  RH  058%=      5-min Rain = 0
KSE2 200054Z 15006KT 18/09 A2994 RMK A01 T01760093  RH  058%=      5-min Rain = 0
KSE2 200055Z 15007KT 18/09 A2994 RMK A01 T01760093  RH  058%=      5-min Rain = 0
KSE2 200056Z 15006KT 18/09 A2994 RMK A01 T01760093  RH  058%=      5-min Rain = 0
KSE2 200057Z 15006KT 18/09 A2994 RMK A01 T01750093  RH  058%=      5-min Rain = 0
KSE2 200058Z 15006KT 18/09 A2994 RMK A01 T01750093  RH  059%=      5-min Rain = 0
KSE2 200059Z 15007KT 18/09 A2994 RMK A01 T01750093  RH  059%=      5-min Rain = 0
KSE2 200100Z 15007KT 18/09 A2994 RMK A01 T01750094  RH  059%=      5-min Rain = 0
KSE2 200101Z 16007KT 17/09 A2994 RMK A01 T01740094  RH  059%=      5-min Rain = 0
KSE2 200102Z 15007KT 17/09 A2994 RMK A01 T01740094  RH  059%=      5-min Rain = 0
KSE2 200103Z 15007KT 17/09 A2994 RMK A01 T01740094  RH  059%=      5-min Rain = 0
KSE2 200104Z 15007KT 17/09 A2994 RMK A01 T01740094  RH  060%=      5-min Rain = 0
KSE2 200105Z 15007KT 17/10 A2994 RMK A01 T01740095  RH  060%=      5-min Rain = 0
KSE2 200106Z 15006KT 17/10 A2994 RMK A01 T01730095  RH  060%=      5-min Rain = 0
KSE2 200107Z 15006KT 17/10 A2994 RMK A01 T01730095  RH  060%=      5-min Rain = 0
KSE2 200108Z 16006KT 17/10 A2994 RMK A01 T01730095  RH  060%=      5-min Rain = 0
KSE2 200109Z 15006KT 17/09 A2994 RMK A01 T01720094  RH  060%=      5-min Rain = 0
KSE2 200110Z 16006KT 17/10 A2995 RMK A01 T01720095  RH  060%=      5-min Rain = 0
KSE2 200111Z 15006KT 17/10 A2994 RMK A01 T01720095  RH  060%=      5-min Rain = 0
KSE2 200112Z 16006KT 17/10 A2995 RMK A01 T01720095  RH  061%=      5-min Rain = 0
KSE2 200113Z 15006KT 17/10 A2995 RMK A01 T01720095  RH  061%=      5-min Rain = 0
KSE2 200114Z 16006KT 17/10 A2994 RMK A01 T01710095  RH  061%=      5-min Rain = 0
KSE2 200115Z 15007KT 17/10 A2995 RMK A01 T01710096  RH  061%=      5-min Rain = 0
KSE2 200116Z 15006KT 17/10 A2994 RMK A01 T01710096  RH  061%=      5-min Rain = 0
KSE2 200117Z 15007KT 17/10 A2994 RMK A01 T01710096  RH  061%=      5-min Rain = 0
KSE2 200118Z 15007KT 17/10 A2994 RMK A01 T01710096  RH  061%=      5-min Rain = 0
KSE2 200119Z 14005KT 17/10 A2995 RMK A01 T01710096  RH  061%=      5-min Rain = 0
KSE2 200120Z 15006KT 17/10 A2995 RMK A01 T01700097  RH  062%=      5-min Rain = 0
KSE2 200121Z 14007KT 17/10 A2995 RMK A01 T01690096  RH  062%=      5-min Rain = 0
KSE2 200122Z 15005KT 17/10 A2995 RMK A01 T01690096  RH  062%=      5-min Rain = 0
KSE2 200123Z 15006KT 17/10 A2995 RMK A01 T01690097  RH  062%=      5-min Rain = 0
KSE2 200124Z 16005KT 17/10 A2995 RMK A01 T01680097  RH  063%=      5-min Rain = 0
KSE2 200125Z 16006KT 17/10 A2995 RMK A01 T01680097  RH  063%=      5-min Rain = 0
KSE2 200126Z 16006KT 17/10 A2995 RMK A01 T01680098  RH  063%=      5-min Rain = 0
KSE2 200127Z 15006KT 17/10 A2995 RMK A01 T01680098  RH  063%=      5-min Rain = 0
KSE2 200128Z 16006KT 17/10 A2995 RMK A01 T01680098  RH  063%=      5-min Rain = 0
KSE2 200129Z 16006KT 17/10 A2995 RMK A01 T01680099  RH  064%=      5-min Rain = 0
KSE2 200130Z 16006KT 17/10 A2995 RMK A01 T01680099  RH  064%=      5-min Rain = 0
KSE2 200131Z 16006KT 17/10 A2995 RMK A01 T01670099  RH  064%=      5-min Rain = 0
KSE2 200132Z 15006KT 17/10 A2995 RMK A01 T01670099  RH  064%=      5-min Rain = 0
KSE2 200133Z 16006KT 17/10 A2995 RMK A01 T01670100  RH  065%=      5-min Rain = 0
KSE2 200134Z 15006KT 17/10 A2995 RMK A01 T01660100  RH  065%=      5-min Rain = 0
KSE2 200135Z 16007KT 17/10 A2995 RMK A01 T01660100  RH  065%=      5-min Rain = 0
KSE2 200136Z 15007KT 17/10 A2995 RMK A01 T01660100  RH  065%=      5-min Rain = 0
KSE2 200137Z 15006KT 17/10 A2995 RMK A01 T01660101  RH  065%=      5-min Rain = 0
KSE2 200138Z 16006KT 17/10 A2995 RMK A01 T01660101  RH  065%=      5-min Rain = 0
KSE2 200139Z 15006KT 17/10 A2995 RMK A01 T01660101  RH  065%=      5-min Rain = 0
KSE2 200140Z 15006KT 17/10 A2995 RMK A01 T01650101  RH  066%=      5-min Rain = 0
KSE2 200141Z 16006KT 17/10 A2995 RMK A01 T01650101  RH  066%=      5-min Rain = 0
KSE2 200142Z 16006KT 17/10 A2995 RMK A01 T01650101  RH  066%=      5-min Rain = 0
KSE2 200143Z 15007KT 17/10 A2995 RMK A01 T01650101  RH  066%=      5-min Rain = 0
KSE2 200144Z 15007KT 16/10 A2995 RMK A01 T01640101  RH  066%=      5-min Rain = 0
KSE2 200145Z 15007KT 16/10 A2995 RMK A01 T01640101  RH  066%=      5-min Rain = 0
KSE2 200146Z 15006KT 16/10 A2995 RMK A01 T01640102  RH  067%=      5-min Rain = 0
KSE2 200147Z 15007KT 16/10 A2995 RMK A01 T01630102  RH  067%=      5-min Rain = 0
KSE2 200148Z 15007KT 16/10 A2995 RMK A01 T01640102  RH  067%=      5-min Rain = 0
KSE2 200149Z 15007KT 16/10 A2995 RMK A01 T01640103  RH  067%=      5-min Rain = 0
KSE2 200150Z 15007KT 16/10 A2995 RMK A01 T01640102  RH  067%=      5-min Rain = 0
KSE2 200151Z 15007KT 16/10 A2995 RMK A01 T01640103  RH  067%=      5-min Rain = 0
KSE2 200152Z 15007KT 16/10 A2995 RMK A01 T01640103  RH  067%=      5-min Rain = 0
KSE2 200153Z 15007KT 16/10 A2995 RMK A01 T01640103  RH  067%=      5-min Rain = 0
KSE2 200154Z 15007KT 16/10 A2995 RMK A01 T01630102  RH  067%=      5-min Rain = 0
KSE2 200155Z 15007KT 16/10 A2995 RMK A01 T01620103  RH  068%=      5-min Rain = 0
KSE2 200156Z 15008KT 16/10 A2995 RMK A01 T01620104  RH  068%=      5-min Rain = 0
KSE2 200157Z 15007KT 16/10 A2995 RMK A01 T01620104  RH  068%=      5-min Rain = 0
KSE2 200158Z 15007KT 16/10 A2995 RMK A01 T01620104  RH  068%=      5-min Rain = 0
KSE2 200159Z 15007KT 16/10 A2995 RMK A01 T01620104  RH  069%=      5-min Rain = 0
KSE2 200200Z 15007KT 16/10 A2995 RMK A01 T01610104  RH  069%=      5-min Rain = 0
KSE2 200201Z 15008KT 16/11 A2995 RMK A01 T01610105  RH  069%=      5-min Rain = 0
KSE2 200202Z 15007KT 16/11 A2995 RMK A01 T01610105  RH  069%=      5-min Rain = 0
KSE2 200203Z 15007KT 16/11 A2995 RMK A01 T01610105  RH  069%=      5-min Rain = 0
KSE2 200204Z 15006KT 16/11 A2995 RMK A01 T01610105  RH  070%=      5-min Rain = 0
KSE2 200205Z 15007KT 16/11 A2995 RMK A01 T01610106  RH  070%=      5-min Rain = 0
KSE2 200206Z 15008KT 16/11 A2995 RMK A01 T01610106  RH  070%=      5-min Rain = 0
KSE2 200207Z 15007KT 16/11 A2995 RMK A01 T01600106  RH  070%=      5-min Rain = 0
KSE2 200208Z 15007KT 16/11 A2995 RMK A01 T01600106  RH  070%=      5-min Rain = 0
KSE2 200209Z 15008KT 16/11 A2995 RMK A01 T01600107  RH  071%=      5-min Rain = 0
KSE2 200210Z 15007KT 16/11 A2995 RMK A01 T01600107  RH  071%=      5-min Rain = 0
KSE2 200211Z 15007KT 16/11 A2995 RMK A01 T01600107  RH  071%=      5-min Rain = 0
KSE2 200212Z 15008KT 16/11 A2995 RMK A01 T01600108  RH  071%=      5-min Rain = 0
KSE2 200213Z 15007KT 16/11 A2995 RMK A01 T01600108  RH  071%=      5-min Rain = 0
KSE2 200214Z 15008KT 16/11 A2995 RMK A01 T01600108  RH  071%=      5-min Rain = 0
KSE2 200215Z 15007KT 16/11 A2995 RMK A01 T01600109  RH  072%=      5-min Rain = 0
KSE2 200216Z 15007KT 16/11 A2995 RMK A01 T01600109  RH  072%=      5-min Rain = 0
KSE2 200217Z 15007KT 16/11 A2995 RMK A01 T01590109  RH  072%=      5-min Rain = 0
KSE2 200218Z 14007KT 16/11 A2995 RMK A01 T01590110  RH  072%=      5-min Rain = 0
KSE2 200219Z 15007KT 16/11 A2995 RMK A01 T01590109  RH  072%=      5-min Rain = 0
KSE2 200220Z 15007KT 16/11 A2995 RMK A01 T01590110  RH  072%=      5-min Rain = 0
KSE2 200221Z 15006KT 16/11 A2995 RMK A01 T01590110  RH  072%=      5-min Rain = 0
KSE2 200222Z 14007KT 16/11 A2995 RMK A01 T01590110  RH  072%=      5-min Rain = 0
KSE2 200223Z 15008KT 16/11 A2995 RMK A01 T01580110  RH  073%=      5-min Rain = 0
KSE2 200224Z 15007KT 16/11 A2995 RMK A01 T01580111  RH  073%=      5-min Rain = 0
KSE2 200225Z 14007KT 16/11 A2995 RMK A01 T01580111  RH  073%=      5-min Rain = 0
KSE2 200226Z 15006KT 16/11 A2995 RMK A01 T01580111  RH  073%=      5-min Rain = 0
KSE2 200227Z 14008KT 16/11 A2995 RMK A01 T01590111  RH  074%=      5-min Rain = 0
KSE2 200228Z 15007KT 16/11 A2995 RMK A01 T01590112  RH  073%=      5-min Rain = 0
KSE2 200229Z 15007KT 16/11 A2995 RMK A01 T01590112  RH  074%=      5-min Rain = 0
KSE2 200230Z 14007KT 16/11 A2995 RMK A01 T01590112  RH  074%=      5-min Rain = 0
KSE2 200231Z 14008KT 16/11 A2995 RMK A01 T01590113  RH  074%=      5-min Rain = 0
KSE2 200232Z 14006KT 16/11 A2995 RMK A01 T01590113  RH  074%=      5-min Rain = 0
KSE2 200233Z 14008KT 16/11 A2995 RMK A01 T01590113  RH  074%=      5-min Rain = 0
KSE2 200234Z 14008KT 16/11 A2995 RMK A01 T01580113  RH  075%=      5-min Rain = 0
KSE2 200235Z 14007KT 16/11 A2995 RMK A01 T01580114  RH  075%=      5-min Rain = 0
KSE2 200236Z 14008KT 16/11 A2995 RMK A01 T01580114  RH  075%=      5-min Rain = 0
KSE2 200237Z 15008KT 16/11 A2995 RMK A01 T01580114  RH  075%=      5-min Rain = 0
KSE2 200238Z 14008KT 16/11 A2995 RMK A01 T01590114  RH  075%=      5-min Rain = 0
KSE2 200239Z 14007KT 16/12 A2995 RMK A01 T01590115  RH  075%=      5-min Rain = 0
KSE2 200240Z 14007KT 16/12 A2995 RMK A01 T01590115  RH  075%=      5-min Rain = 0
KSE2 200241Z 14006KT 16/12 A2995 RMK A01 T01590115  RH  075%=      5-min Rain = 0
KSE2 200242Z 14007KT 16/12 A2995 RMK A01 T01580115  RH  075%=      5-min Rain = 0
KSE2 200243Z 15008KT 16/12 A2995 RMK A01 T01580115  RH  076%=      5-min Rain = 0
KSE2 200244Z 15008KT 16/12 A2995 RMK A01 T01580116  RH  076%=      5-min Rain = 0
KSE2 200245Z 14007KT 16/12 A2995 RMK A01 T01580116  RH  076%=      5-min Rain = 0
KSE2 200246Z 15007KT 16/12 A2995 RMK A01 T01590116  RH  076%=      5-min Rain = 0
KSE2 200247Z 15007KT 16/12 A2995 RMK A01 T01580116  RH  076%=      5-min Rain = 0
KSE2 200248Z 15007KT 16/12 A2995 RMK A01 T01580116  RH  076%=      5-min Rain = 0
KSE2 200249Z 14006KT 16/12 A2995 RMK A01 T01580116  RH  076%=      5-min Rain = 0
KSE2 200250Z 15008KT 16/12 A2995 RMK A01 T01580116  RH  076%=      5-min Rain = 0
KSE2 200251Z 15008KT 16/12 A2995 RMK A01 T01580117  RH  076%=      5-min Rain = 0
KSE2 200252Z 15007KT 16/12 A2995 RMK A01 T01580117  RH  076%=      5-min Rain = 0
KSE2 200253Z 15008KT 16/12 A2995 RMK A01 T01580117  RH  077%=      5-min Rain = 0
KSE2 200254Z 15008KT 16/12 A2995 RMK A01 T01580117  RH  077%=      5-min Rain = 0
KSE2 200255Z 15008KT 16/12 A2995 RMK A01 T01580117  RH  077%=      5-min Rain = 0
KSE2 200256Z 15008KT 16/12 A2995 RMK A01 T01580117  RH  077%=      5-min Rain = 0
KSE2 200257Z 14008KT 16/12 A2995 RMK A01 T01580117  RH  077%=      5-min Rain = 0
KSE2 200258Z 15007KT 16/12 A2995 RMK A01 T01580118  RH  077%=      5-min Rain = 0
KSE2 200259Z 14007KT 16/12 A2995 RMK A01 T01580118  RH  077%=      5-min Rain = 0
KSE2 200300Z 14006KT 16/12 A2995 RMK A01 T01580118  RH  077%=      5-min Rain = 0
KSE2 200301Z 14007KT 16/12 A2995 RMK A01 T01570118  RH  077%=      5-min Rain = 0
KSE2 200302Z 14007KT 16/12 A2995 RMK A01 T01570118  RH  078%=      5-min Rain = 0
KSE2 200303Z 15007KT 16/12 A2995 RMK A01 T01570118  RH  078%=      5-min Rain = 0
KSE2 200304Z 15007KT 16/12 A2996 RMK A01 T01570118  RH  078%=      5-min Rain = 0
KSE2 200305Z 15007KT 16/12 A2996 RMK A01 T01570118  RH  078%=      5-min Rain = 0
KSE2 200306Z 15008KT 16/12 A2996 RMK A01 T01570118  RH  078%=      5-min Rain = 0
KSE2 200307Z 15008KT 16/12 A2996 RMK A01 T01580119  RH  078%=      5-min Rain = 0
KSE2 200308Z 15008KT 16/12 A2996 RMK A01 T01580120  RH  078%=      5-min Rain = 0
KSE2 200309Z 15008KT 16/12 A2996 RMK A01 T01580119  RH  078%=      5-min Rain = 0
KSE2 200310Z 15007KT 16/12 A2996 RMK A01 T01590120  RH  077%=      5-min Rain = 0
KSE2 200311Z 15007KT 16/12 A2996 RMK A01 T01590120  RH  077%=      5-min Rain = 0
KSE2 200312Z 15009KT 16/12 A2996 RMK A01 T01580120  RH  078%=      5-min Rain = 0
KSE2 200313Z 16009KT 16/12 A2996 RMK A01 T01590120  RH  078%=      5-min Rain = 0
KSE2 200314Z 16008KT 16/12 A2996 RMK A01 T01590120  RH  078%=      5-min Rain = 0
KSE2 200315Z 15009KT 16/12 A2996 RMK A01 T01590120  RH  078%=      5-min Rain = 0
KSE2 200316Z 15009KT 16/12 A2996 RMK A01 T01600121  RH  078%=      5-min Rain = 0
KSE2 200317Z 16008KT 16/12 A2996 RMK A01 T01600121  RH  077%=      5-min Rain = 0
KSE2 200318Z 15008KT 16/12 A2996 RMK A01 T01610121  RH  077%=      5-min Rain = 0
KSE2 200319Z 16010KT 16/12 A2996 RMK A01 T01610121  RH  077%=      5-min Rain = 0
KSE2 200320Z 15010KT 16/12 A2996 RMK A01 T01610121  RH  077%=      5-min Rain = 0
KSE2 200321Z 15010KT 16/12 A2996 RMK A01 T01620121  RH  077%=      5-min Rain = 0
KSE2 200322Z 15010KT 16/12 A2996 RMK A01 T01620121  RH  077%=      5-min Rain = 0
KSE2 200323Z 15009KT 16/12 A2996 RMK A01 T01620121  RH  077%=      5-min Rain = 0
KSE2 200324Z 15009KT 16/12 A2996 RMK A01 T01610121  RH  077%=      5-min Rain = 0
KSE2 200325Z 15009KT 16/12 A2996 RMK A01 T01620121  RH  077%=      5-min Rain = 0
KSE2 200326Z 15010KT 16/12 A2996 RMK A01 T01610121  RH  077%=      5-min Rain = 0
KSE2 200327Z 15009KT 16/12 A2996 RMK A01 T01620122  RH  077%=      5-min Rain = 0
KSE2 200328Z 15008KT 16/12 A2996 RMK A01 T01620121  RH  077%=      5-min Rain = 0
KSE2 200329Z 16010KT 16/12 A2996 RMK A01 T01620121  RH  077%=      5-min Rain = 0
KSE2 200330Z 15009KT 16/12 A2996 RMK A01 T01620122  RH  077%=      5-min Rain = 0
KSE2 200331Z 15010KT 16/12 A2996 RMK A01 T01620121  RH  077%=      5-min Rain = 0
KSE2 200332Z 15010KT 16/12 A2996 RMK A01 T01620121  RH  077%=      5-min Rain = 0
KSE2 200333Z 15009KT 16/12 A2995 RMK A01 T01630121  RH  076%=      5-min Rain = 0
KSE2 200334Z 14010KT 16/12 A2995 RMK A01 T01620121  RH  076%=      5-min Rain = 0
KSE2 200335Z 15008KT 16/12 A2995 RMK A01 T01620121  RH  076%=      5-min Rain = 0
KSE2 200336Z 14010KT 16/12 A2995 RMK A01 T01630121  RH  076%=      5-min Rain = 0
KSE2 200337Z 14010KT 16/12 A2995 RMK A01 T01630121  RH  076%=      5-min Rain = 0
KSE2 200338Z 14009KT 16/12 A2995 RMK A01 T01630121  RH  076%=      5-min Rain = 0
KSE2 200339Z 15011KT 16/12 A2995 RMK A01 T01620121  RH  076%=      5-min Rain = 0
KSE2 200340Z 15009KT 16/12 A2995 RMK A01 T01630121  RH  076%=      5-min Rain = 0
KSE2 200341Z 15009KT 16/12 A2995 RMK A01 T01630121  RH  076%=      5-min Rain = 0
KSE2 200342Z 15010KT 16/12 A2995 RMK A01 T01630121  RH  076%=      5-min Rain = 0
KSE2 200343Z 15012KT 16/12 A2995 RMK A01 T01630121  RH  076%=      5-min Rain = 0
KSE2 200344Z 15011KT 16/12 A2995 RMK A01 T01630121  RH  076%=      5-min Rain = 0
KSE2 200345Z 14010KT 16/12 A2995 RMK A01 T01640121  RH  076%=      5-min Rain = 0
KSE2 200346Z 15008KT 16/12 A2995 RMK A01 T01640121  RH  076%=      5-min Rain = 0
KSE2 200347Z 15009KT 16/12 A2995 RMK A01 T01630121  RH  076%=      5-min Rain = 0
KSE2 200348Z 15009KT 16/12 A2995 RMK A01 T01630121  RH  076%=      5-min Rain = 0
KSE2 200349Z 14009KT 16/12 A2995 RMK A01 T01630121  RH  076%=      5-min Rain = 0
KSE2 200350Z 15012KT 16/12 A2995 RMK A01 T01620121  RH  076%=      5-min Rain = 0
KSE2 200351Z 15011KT 16/12 A2995 RMK A01 T01630121  RH  076%=      5-min Rain = 0
KSE2 200352Z 15010KT 16/12 A2995 RMK A01 T01630121  RH  076%=      5-min Rain = 0
KSE2 200353Z 15010KT 16/12 A2995 RMK A01 T01630121  RH  076%=      5-min Rain = 0
KSE2 200354Z 15010G15KT 16/12 A2995 RMK A01 T01630121  RH  076%=      5-min Rain = 0
KSE2 200355Z 14011KT 16/12 A2995 RMK A01 T01620121  RH  076%=      5-min Rain = 0
KSE2 200356Z 14010KT 16/12 A2995 RMK A01 T01630121  RH  076%=      5-min Rain = 0
KSE2 200357Z 15010KT 16/12 A2995 RMK A01 T01620121  RH  076%=      5-min Rain = 0
KSE2 200358Z 15009KT 16/12 A2995 RMK A01 T01620120  RH  076%=      5-min Rain = 0
KSE2 200359Z 15009KT 16/12 A2995 RMK A01 T01630121  RH  076%=      5-min Rain = 0
KSE2 200400Z 15009KT 16/12 A2995 RMK A01 T01620121  RH  076%=      5-min Rain = 0
KSE2 200401Z 14009KT 16/12 A2995 RMK A01 T01620121  RH  076%=      5-min Rain = 0
KSE2 200402Z 15011KT 16/12 A2995 RMK A01 T01610120  RH  077%=      5-min Rain = 0
KSE2 200403Z 15009KT 16/12 A2995 RMK A01 T01620121  RH  077%=      5-min Rain = 0
KSE2 200404Z 15011KT 16/12 A2995 RMK A01 T01620121  RH  077%=      5-min Rain = 0
KSE2 200405Z 16009KT 16/12 A2996 RMK A01 T01620121  RH  077%=      5-min Rain = 0
KSE2 200406Z 15010KT 16/12 A2996 RMK A01 T01620121  RH  076%=      5-min Rain = 0
KSE2 200407Z 16009KT 16/12 A2996 RMK A01 T01620120  RH  076%=      5-min Rain = 0
KSE2 200408Z 15010KT 16/12 A2996 RMK A01 T01630121  RH  076%=      5-min Rain = 0
KSE2 200409Z 16010G16KT 16/12 A2996 RMK A01 T01620121  RH  076%=      5-min Rain = 0
KSE2 200410Z 16009KT 16/12 A2995 RMK A01 T01630121  RH  076%=      5-min Rain = 0
KSE2 200411Z 15010KT 16/12 A2995 RMK A01 T01630121  RH  076%=      5-min Rain = 0
KSE2 200412Z 16009KT 16/12 A2995 RMK A01 T01630121  RH  076%=      5-min Rain = 0
KSE2 200413Z 15009KT 16/12 A2995 RMK A01 T01630121  RH  076%=      5-min Rain = 0
KSE2 200414Z 15009KT 16/12 A2995 RMK A01 T01630121  RH  076%=      5-min Rain = 0
KSE2 200415Z 15012KT 16/12 A2995 RMK A01 T01630121  RH  076%=      5-min Rain = 0
KSE2 200416Z 15011KT 16/12 A2995 RMK A01 T01630121  RH  076%=      5-min Rain = 0
KSE2 200417Z 15010KT 16/12 A2995 RMK A01 T01640121  RH  076%=      5-min Rain = 0
KSE2 200418Z 16010KT 16/12 A2995 RMK A01 T01640121  RH  076%=      5-min Rain = 0
KSE2 200419Z 15008KT 16/12 A2995 RMK A01 T01630121  RH  076%=      5-min Rain = 0
KSE2 200420Z 15009KT 16/12 A2995 RMK A01 T01630121  RH  076%=      5-min Rain = 0
KSE2 200421Z 15010KT 16/12 A2995 RMK A01 T01620121  RH  076%=      5-min Rain = 0
KSE2 200422Z 15009KT 16/12 A2995 RMK A01 T01620121  RH  077%=      5-min Rain = 0
KSE2 200423Z 15009KT 16/12 A2995 RMK A01 T01620121  RH  077%=      5-min Rain = 0
KSE2 200424Z 15009KT 16/12 A2995 RMK A01 T01620121  RH  077%=      5-min Rain = 0
KSE2 200425Z 15009KT 16/12 A2995 RMK A01 T01620121  RH  077%=      5-min Rain = 0
KSE2 200426Z 15009KT 16/12 A2995 RMK A01 T01620121  RH  077%=      5-min Rain = 0
KSE2 200427Z 15009KT 16/12 A2995 RMK A01 T01610121  RH  077%=      5-min Rain = 0
KSE2 200428Z 16010KT 16/12 A2995 RMK A01 T01610121  RH  077%=      5-min Rain = 0
KSE2 200429Z 15009KT 16/12 A2995 RMK A01 T01610121  RH  077%=      5-min Rain = 0
KSE2 200430Z 15010KT 16/12 A2995 RMK A01 T01610121  RH  077%=      5-min Rain = 0
KSE2 200431Z 16009KT 16/12 A2995 RMK A01 T01610121  RH  077%=      5-min Rain = 0
KSE2 200432Z 15008KT 16/12 A2995 RMK A01 T01610121  RH  077%=      5-min Rain = 0
KSE2 200433Z 16009KT 16/12 A2995 RMK A01 T01610121  RH  077%=      5-min Rain = 0
KSE2 200434Z 16010KT 16/12 A2995 RMK A01 T01610121  RH  077%=      5-min Rain = 0
KSE2 200435Z 15010KT 16/12 A2995 RMK A01 T01610121  RH  077%=      5-min Rain = 0
KSE2 200436Z 16011KT 16/12 A2995 RMK A01 T01610121  RH  077%=      5-min Rain = 0
KSE2 200437Z 17009KT 16/12 A2995 RMK A01 T01610121  RH  077%=      5-min Rain = 0
KSE2 200438Z 16008KT 16/12 A2995 RMK A01 T01610121  RH  077%=      5-min Rain = 0
KSE2 200439Z 16008KT 16/12 A2995 RMK A01 T01610121  RH  077%=      5-min Rain = 0
KSE2 200440Z 16009KT 16/12 A2995 RMK A01 T01610121  RH  077%=      5-min Rain = 0
KSE2 200441Z 16008KT 16/12 A2995 RMK A01 T01600121  RH  077%=      5-min Rain = 0
KSE2 200442Z 16008KT 16/12 A2995 RMK A01 T01600120  RH  078%=      5-min Rain = 0
KSE2 200443Z 16009KT 16/12 A2995 RMK A01 T01590121  RH  078%=      5-min Rain = 0
KSE2 200444Z 16008KT 16/12 A2995 RMK A01 T01580121  RH  078%=      5-min Rain = 0
KSE2 200445Z 16009KT 16/12 A2995 RMK A01 T01580121  RH  078%=      5-min Rain = 0
KSE2 200446Z 16008KT 16/12 A2995 RMK A01 T01580121  RH  078%=      5-min Rain = 0
KSE2 200447Z 16008KT 16/12 A2995 RMK A01 T01580121  RH  078%=      5-min Rain = 0
KSE2 200448Z 16009KT 16/12 A2995 RMK A01 T01580121  RH  078%=      5-min Rain = 0
KSE2 200449Z 17010KT 16/12 A2995 RMK A01 T01580121  RH  079%=      5-min Rain = 0
KSE2 200450Z 17009KT 16/12 A2995 RMK A01 T01580121  RH  079%=      5-min Rain = 0
KSE2 200451Z 16008KT 16/12 A2995 RMK A01 T01580121  RH  078%=      5-min Rain = 0
KSE2 200452Z 17008KT 16/12 A2995 RMK A01 T01580121  RH  078%=      5-min Rain = 0
KSE2 200453Z 16008KT 16/12 A2995 RMK A01 T01580121  RH  078%=      5-min Rain = 0
KSE2 200454Z 16008KT 16/12 A2995 RMK A01 T01570121  RH  079%=      5-min Rain = 0
KSE2 200455Z 16007KT 16/12 A2995 RMK A01 T01570121  RH  079%=      5-min Rain = 0
KSE2 200456Z 16008KT 16/12 A2995 RMK A01 T01570120  RH  079%=      5-min Rain = 0
KSE2 200457Z 16008KT 16/12 A2995 RMK A01 T01560121  RH  079%=      5-min Rain = 0
KSE2 200458Z 16008KT 16/12 A2995 RMK A01 T01560121  RH  079%=      5-min Rain = 0
KSE2 200459Z 16009KT 16/12 A2995 RMK A01 T01560121  RH  079%=      5-min Rain = 0
KSE2 200500Z 17008KT 16/12 A2995 RMK A01 T01560121  RH  079%=      5-min Rain = 0
KSE2 200501Z 15008KT 16/12 A2995 RMK A01 T01560121  RH  079%=      5-min Rain = 0
KSE2 200502Z 15009KT 16/12 A2995 RMK A01 T01560121  RH  080%=      5-min Rain = 0
KSE2 200503Z 15008KT 16/12 A2995 RMK A01 T01560121  RH  080%=      5-min Rain = 0
KSE2 200504Z 16009KT 16/12 A2995 RMK A01 T01560121  RH  080%=      5-min Rain = 0
KSE2 200505Z 16008KT 16/12 A2995 RMK A01 T01560121  RH  080%=      5-min Rain = 0
KSE2 200506Z 16009KT 16/12 A2995 RMK A01 T01560121  RH  080%=      5-min Rain = 0
KSE2 200507Z 15008KT 16/12 A2995 RMK A01 T01550121  RH  080%=      5-min Rain = 0
KSE2 200508Z 15009KT 16/12 A2995 RMK A01 T01550121  RH  080%=      5-min Rain = 0
KSE2 200509Z 16008KT 16/12 A2995 RMK A01 T01550121  RH  080%=      5-min Rain = 0
KSE2 200510Z 16009KT 16/12 A2995 RMK A01 T01550121  RH  080%=      5-min Rain = 0
KSE2 200511Z 16008KT 16/12 A2995 RMK A01 T01550121  RH  080%=      5-min Rain = 0
KSE2 200512Z 16008KT 16/12 A2995 RMK A01 T01550121  RH  080%=      5-min Rain = 0
KSE2 200513Z 16007KT 16/12 A2995 RMK A01 T01550121  RH  080%=      5-min Rain = 0
KSE2 200514Z 16009KT 16/12 A2995 RMK A01 T01550121  RH  080%=      5-min Rain = 0
KSE2 200515Z 16009KT 16/12 A2995 RMK A01 T01550121  RH  080%=      5-min Rain = 0
KSE2 200516Z 16007KT 16/12 A2995 RMK A01 T01550121  RH  080%=      5-min Rain = 0
KSE2 200517Z 17010KT 16/12 A2995 RMK A01 T01550121  RH  080%=      5-min Rain = 0
KSE2 200518Z 16009KT 16/12 A2995 RMK A01 T01550121  RH  080%=      5-min Rain = 0
KSE2 200519Z 16009KT 16/12 A2995 RMK A01 T01550121  RH  080%=      5-min Rain = 0
KSE2 200520Z 17008KT 16/12 A2995 RMK A01 T01550121  RH  080%=      5-min Rain = 0
KSE2 200521Z 16009KT 16/12 A2995 RMK A01 T01550121  RH  080%=      5-min Rain = 0
KSE2 200522Z 16008KT 16/12 A2995 RMK A01 T01550121  RH  080%=      5-min Rain = 0
KSE2 200523Z 16008KT 15/12 A2995 RMK A01 T01540121  RH  081%=      5-min Rain = 0
KSE2 200524Z 16007KT 15/12 A2995 RMK A01 T01540121  RH  081%=      5-min Rain = 0
KSE2 200525Z 16008KT 15/12 A2995 RMK A01 T01530121  RH  081%=      5-min Rain = 0
KSE2 200526Z 16008KT 15/12 A2995 RMK A01 T01530121  RH  081%=      5-min Rain = 0
KSE2 200527Z 16008KT 15/12 A2995 RMK A01 T01530121  RH  081%=      5-min Rain = 0
KSE2 200528Z 16007KT 15/12 A2994 RMK A01 T01520121  RH  081%=      5-min Rain = 0
KSE2 200529Z 16008KT 15/12 A2994 RMK A01 T01520121  RH  082%=      5-min Rain = 0
KSE2 200530Z 16009KT 15/12 A2994 RMK A01 T01520121  RH  082%=      5-min Rain = 0
KSE2 200531Z 16008KT 15/12 A2994 RMK A01 T01510121  RH  082%=      5-min Rain = 0
KSE2 200532Z 16009KT 15/12 A2994 RMK A01 T01520121  RH  082%=      5-min Rain = 0
KSE2 200533Z 16008KT 15/12 A2994 RMK A01 T01510121  RH  082%=      5-min Rain = 0
KSE2 200534Z 16009KT 15/12 A2994 RMK A01 T01520121  RH  082%=      5-min Rain = 0
KSE2 200535Z 16008KT 15/12 A2994 RMK A01 T01520121  RH  082%=      5-min Rain = 0
KSE2 200536Z 16008KT 15/12 A2994 RMK A01 T01520122  RH  082%=      5-min Rain = 0
KSE2 200537Z 16009KT 15/12 A2994 RMK A01 T01520122  RH  082%=      5-min Rain = 0
KSE2 200538Z 15008KT 15/12 A2994 RMK A01 T01520122  RH  082%=      5-min Rain = 0
KSE2 200539Z 15008KT 15/12 A2994 RMK A01 T01520122  RH  082%=      5-min Rain = 0
KSE2 200540Z 16010KT 15/12 A2994 RMK A01 T01520122  RH  082%=      5-min Rain = 0
KSE2 200541Z 16008KT 15/12 A2994 RMK A01 T01520122  RH  082%=      5-min Rain = 0
KSE2 200542Z 16008KT 15/12 A2994 RMK A01 T01530122  RH  082%=      5-min Rain = 0
KSE2 200543Z 16009KT 15/12 A2994 RMK A01 T01530122  RH  082%=      5-min Rain = 0
KSE2 200544Z 16009KT 15/12 A2994 RMK A01 T01530122  RH  082%=      5-min Rain = 0
KSE2 200545Z 16008KT 15/12 A2994 RMK A01 T01530122  RH  082%=      5-min Rain = 0
KSE2 200546Z 16007KT 15/12 A2994 RMK A01 T01520122  RH  082%=      5-min Rain = 0
KSE2 200547Z 16009KT 15/12 A2994 RMK A01 T01520122  RH  082%=      5-min Rain = 0
KSE2 200548Z 16010KT 15/12 A2994 RMK A01 T01530122  RH  082%=      5-min Rain = 0
KSE2 200549Z 15011KT 15/12 A2994 RMK A01 T01530122  RH  082%=      5-min Rain = 0
KSE2 200550Z 16008KT 15/12 A2994 RMK A01 T01540122  RH  082%=      5-min Rain = 0
KSE2 200551Z 16008KT 15/12 A2994 RMK A01 T01540122  RH  082%=      5-min Rain = 0
KSE2 200552Z 16009KT 15/12 A2994 RMK A01 T01530122  RH  082%=      5-min Rain = 0
KSE2 200553Z 15009KT 15/12 A2994 RMK A01 T01530122  RH  082%=      5-min Rain = 0
KSE2 200554Z 16009KT 15/12 A2994 RMK A01 T01530122  RH  082%=      5-min Rain = 0
KSE2 200555Z 16010KT 15/12 A2995 RMK A01 T01530122  RH  082%=      5-min Rain = 0
KSE2 200556Z 16008KT 15/12 A2995 RMK A01 T01530122  RH  082%=      5-min Rain = 0
KSE2 200557Z 16008KT 15/12 A2995 RMK A01 T01530122  RH  082%=      5-min Rain = 0
KSE2 200558Z 17010KT 15/12 A2995 RMK A01 T01530122  RH  082%=      5-min Rain = 0
KSE2 200559Z 16009KT 15/12 A2995 RMK A01 T01530122  RH  082%=      5-min Rain = 0

Page generated in 0.1193 seconds.